| time (UTC) | temp F | wind direction | speed MPH | gust MPH | rain 1hr in | rain 24hr in | rain mn in | humidity % | barometer mb |
| 20260508002258 | 54 | 261 | 1.0 | 4.0 | 0.00 | 0.00 | 0.00 | 47 | 1011.8 |
| 20260508002158 | 54 | 258 | 1.0 | 4.0 | 0.00 | 0.00 | 0.00 | 47 | 1011.7 |
| 20260508002057 | 54 | 234 | 3.0 | 4.0 | 0.00 | 0.00 | 0.00 | 47 | 1011.8 |
| 20260508001957 | 54 | 244 | 1.0 | 4.0 | 0.00 | 0.00 | 0.00 | 47 | 1011.8 |
| 20260508001858 | 54 | 178 | 1.0 | 3.0 | 0.00 | 0.00 | 0.00 | 47 | 1011.6 |
| 20260508001758 | 54 | 178 | 0.0 | 3.0 | 0.00 | 0.00 | 0.00 | 46 | 1011.6 |
| 20260508001657 | 54 | 213 | 0.0 | 3.0 | 0.00 | 0.00 | 0.00 | 46 | 1011.6 |
| 20260508001557 | 54 | 213 | 0.0 | 3.0 | 0.00 | 0.00 | 0.00 | 46 | 1011.6 |
| 20260508001457 | 54 | 252 | 1.0 | 3.0 | 0.00 | 0.00 | 0.00 | 46 | 1011.6 |
| 20260508001357 | 54 | 248 | 1.0 | 3.0 | 0.00 | 0.00 | 0.00 | 46 | 1011.6 |
| 20260508001257 | 54 | 273 | 1.0 | 3.0 | 0.00 | 0.00 | 0.00 | 46 | 1011.6 |
| 20260508001158 | 54 | 273 | 1.0 | 3.0 | 0.00 | 0.00 | 0.00 | 46 | 1011.6 |
| 20260508001056 | 54 | 273 | 1.0 | 3.0 | 0.00 | 0.00 | 0.00 | 46 | 1011.5 |
| 20260508000957 | 55 | 246 | 1.0 | 3.0 | 0.00 | 0.00 | 0.00 | 46 | 1011.5 |
| 20260508000657 | 55 | 336 | 2.0 | 3.0 | 0.00 | 0.00 | 0.00 | 46 | 1011.4 |
| 20260508000557 | 55 | 287 | 1.0 | 7.0 | 0.00 | 0.00 | 0.00 | 44 | 1011.4 |
| 20260508000458 | 55 | 267 | 2.0 | 7.0 | 0.00 | 0.00 | 0.00 | 44 | 1011.3 |
| 20260508000358 | 55 | 248 | 3.0 | 7.0 | 0.00 | 0.00 | 0.00 | 46 | 1011.2 |
| 20260508000257 | 55 | 24 | 0.0 | 7.0 | 0.00 | 0.00 | 0.00 | 45 | 1011.3 |
| 20260508000056 | 55 | 136 | 1.0 | 7.0 | 0.00 | 0.00 | 0.00 | 45 | 1011.3 |
| 20260507235855 | 55 | 266 | 1.0 | 7.0 | 0.00 | 0.00 | 0.00 | 45 | 1011.2 |
| 20260507235756 | 55 | 330 | 4.0 | 7.0 | 0.00 | 0.00 | 0.00 | 44 | 1011.2 |
| 20260507235655 | 55 | 277 | 1.0 | 8.0 | 0.00 | 0.00 | 0.00 | 44 | 1011.3 |
| 20260507235456 | 55 | 288 | 2.0 | 8.0 | 0.00 | 0.00 | 0.00 | 44 | 1011.1 |
| 20260507235356 | 55 | 346 | 2.0 | 8.0 | 0.00 | 0.00 | 0.00 | 45 | 1011.2 |
| 20260507235256 | 55 | 287 | 1.0 | 8.0 | 0.00 | 0.00 | 0.00 | 44 | 1011.2 |
| 20260507235056 | 56 | 269 | 1.0 | 8.0 | 0.00 | 0.00 | 0.00 | 45 | 1011.1 |
| 20260507234958 | 56 | 264 | 1.0 | 8.0 | 0.00 | 0.00 | 0.00 | 44 | 1011.2 |
| 20260507234856 | 56 | 234 | 1.0 | 8.0 | 0.00 | 0.00 | 0.00 | 44 | 1011.2 |
| 20260507234756 | 56 | 271 | 1.0 | 4.0 | 0.00 | 0.00 | 0.00 | 44 | 1011.2 |
| 20260507234656 | 56 | 266 | 1.0 | 5.0 | 0.00 | 0.00 | 0.00 | 43 | 1011.2 |
| 20260507234557 | 56 | 249 | 2.0 | 5.0 | 0.00 | 0.00 | 0.00 | 43 | 1011.1 |
| 20260507234456 | 56 | 261 | 2.0 | 5.0 | 0.00 | 0.00 | 0.00 | 43 | 1011.1 |
| 20260507234257 | 56 | 244 | 1.0 | 5.0 | 0.00 | 0.00 | 0.00 | 42 | 1011.1 |
| 20260507234156 | 56 | 169 | 2.0 | 5.0 | 0.00 | 0.00 | 0.00 | 44 | 1011.1 |
| 20260507234056 | 56 | 343 | 2.0 | 5.0 | 0.00 | 0.00 | 0.00 | 43 | 1011.1 |
| 20260507233957 | 56 | 277 | 1.0 | 5.0 | 0.00 | 0.00 | 0.00 | 42 | 1011.1 |
| 20260507233757 | 56 | 292 | 2.0 | 5.0 | 0.00 | 0.00 | 0.00 | 43 | 1011.0 |
| 20260507233657 | 56 | 273 | 0.0 | 5.0 | 0.00 | 0.00 | 0.00 | 43 | 1011.0 |
| 20260507233556 | 56 | 317 | 2.0 | 5.0 | 0.00 | 0.00 | 0.00 | 44 | 1011.0 |
| 20260507233456 | 56 | 293 | 2.0 | 5.0 | 0.00 | 0.00 | 0.00 | 44 | 1011.1 |
| 20260507233356 | 57 | 247 | 4.0 | 5.0 | 0.00 | 0.00 | 0.00 | 44 | 1011.0 |
| 20260507233256 | 57 | 347 | 3.0 | 3.0 | 0.00 | 0.00 | 0.00 | 42 | 1011.0 |
| 20260507233156 | 57 | 285 | 3.0 | 3.0 | 0.00 | 0.00 | 0.00 | 44 | 1011.0 |
| 20260507233056 | 56 | 261 | 2.0 | 3.0 | 0.00 | 0.00 | 0.00 | 44 | 1011.0 |
| 20260507232956 | 57 | 338 | 2.0 | 3.0 | 0.00 | 0.00 | 0.00 | 43 | 1011.0 |
| 20260507232855 | 56 | 317 | 1.0 | 3.0 | 0.00 | 0.00 | 0.00 | 43 | 1011.0 |
| 20260507232757 | 57 | 275 | 1.0 | 3.0 | 0.00 | 0.00 | 0.00 | 44 | 1011.0 |
| 20260507232556 | 57 | 306 | 1.0 | 3.0 | 0.00 | 0.00 | 0.00 | 43 | 1010.9 |
| 20260507232457 | 57 | 270 | 2.0 | 3.0 | 0.00 | 0.00 | 0.00 | 43 | 1010.9 |
| 20260507232357 | 57 | 161 | 0.0 | 3.0 | 0.00 | 0.00 | 0.00 | 42 | 1010.9 |
| 20260507232256 | 57 | 215 | 2.0 | 3.0 | 0.00 | 0.00 | 0.00 | 42 | 1010.9 |
| 20260507232057 | 57 | 224 | 0.0 | 3.0 | 0.00 | 0.00 | 0.00 | 44 | 1010.9 |
| 20260507231856 | 57 | 259 | 1.0 | 5.0 | 0.00 | 0.00 | 0.00 | 42 | 1010.8 |
| 20260507231756 | 57 | 221 | 2.0 | 8.0 | 0.00 | 0.00 | 0.00 | 43 | 1010.8 |
| 20260507231657 | 57 | 330 | 1.0 | 8.0 | 0.00 | 0.00 | 0.00 | 42 | 1010.7 |
| 20260507231556 | 57 | 250 | 3.0 | 8.0 | 0.00 | 0.00 | 0.00 | 43 | 1010.8 |
| 20260507231456 | 57 | 324 | 1.0 | 8.0 | 0.00 | 0.00 | 0.00 | 42 | 1010.8 |
| 20260507231256 | 57 | 355 | 1.0 | 8.0 | 0.00 | 0.00 | 0.00 | 42 | 1010.7 |
| 20260507231056 | 57 | 305 | 1.0 | 8.0 | 0.00 | 0.00 | 0.00 | 40 | 1010.7 |
| 20260507230955 | 57 | 250 | 5.0 | 8.0 | 0.00 | 0.00 | 0.00 | 41 | 1010.8 |
| 20260507230856 | 57 | 307 | 2.0 | 7.0 | 0.00 | 0.00 | 0.00 | 42 | 1010.7 |
| 20260507230657 | 57 | 274 | 1.0 | 7.0 | 0.00 | 0.00 | 0.00 | 41 | 1010.7 |
| 20260507230556 | 57 | 279 | 2.0 | 7.0 | 0.00 | 0.00 | 0.00 | 42 | 1010.7 |
| 20260507230456 | 57 | 233 | 2.0 | 7.0 | 0.00 | 0.00 | 0.00 | 41 | 1010.7 |
| 20260507230356 | 58 | 238 | 2.0 | 7.0 | 0.00 | 0.00 | 0.00 | 41 | 1010.7 |
| 20260507230156 | 58 | 144 | 1.0 | 4.0 | 0.00 | 0.00 | 0.00 | 42 | 1010.8 |
| 20260507230056 | 58 | 301 | 1.0 | 3.0 | 0.00 | 0.00 | 0.00 | 41 | 1010.6 |
| 20260507225956 | 58 | 259 | 3.0 | 4.0 | 0.00 | 0.00 | 0.00 | 41 | 1010.7 |
| 20260507225756 | 58 | 178 | 2.0 | 5.0 | 0.00 | 0.00 | 0.00 | 40 | 1010.5 |
| 20260507225656 | 58 | 355 | 1.0 | 5.0 | 0.00 | 0.00 | 0.00 | 41 | 1010.6 |
| 20260507225556 | 58 | 279 | 2.0 | 5.0 | 0.00 | 0.00 | 0.00 | 41 | 1010.6 |
| 20260507225456 | 58 | 281 | 0.0 | 5.0 | 0.00 | 0.00 | 0.00 | 40 | 1010.6 |
| 20260507225356 | 58 | 110 | 1.0 | 5.0 | 0.00 | 0.00 | 0.00 | 40 | 1010.7 |
| 20260507225157 | 58 | 204 | 2.0 | 5.0 | 0.00 | 0.00 | 0.00 | 40 | 1010.6 |
| 20260507224956 | 58 | 288 | 1.0 | 8.0 | 0.00 | 0.00 | 0.00 | 40 | 1010.6 |
| 20260507224856 | 58 | 282 | 2.0 | 8.0 | 0.00 | 0.00 | 0.00 | 40 | 1010.5 |
| 20260507224757 | 58 | 261 | 2.0 | 8.0 | 0.00 | 0.00 | 0.00 | 40 | 1010.5 |
| 20260507224557 | 58 | 315 | 2.0 | 8.0 | 0.00 | 0.00 | 0.00 | 39 | 1010.4 |
| 20260507224455 | 58 | 313 | 3.0 | 8.0 | 0.00 | 0.00 | 0.00 | 40 | 1010.4 |
| 20260507224356 | 58 | 253 | 1.0 | 8.0 | 0.00 | 0.00 | 0.00 | 39 | 1010.5 |
| 20260507224257 | 58 | 266 | 3.0 | 8.0 | 0.00 | 0.00 | 0.00 | 40 | 1010.5 |
| 20260507224156 | 58 | 300 | 2.0 | 4.0 | 0.00 | 0.00 | 0.00 | 40 | 1010.5 |
| 20260507224056 | 58 | 329 | 2.0 | 4.0 | 0.00 | 0.00 | 0.00 | 40 | 1010.5 |
| 20260507223956 | 58 | 267 | 2.0 | 4.0 | 0.00 | 0.00 | 0.00 | 41 | 1010.4 |
| 20260507223655 | 58 | 266 | 1.0 | 4.0 | 0.00 | 0.00 | 0.00 | 40 | 1010.4 |
| 20260507223555 | 59 | 260 | 2.0 | 4.0 | 0.00 | 0.00 | 0.00 | 40 | 1010.4 |
| 20260507223456 | 59 | 311 | 2.0 | 4.0 | 0.00 | 0.00 | 0.00 | 39 | 1010.3 |
| 20260507223355 | 59 | 265 | 3.0 | 4.0 | 0.00 | 0.00 | 0.00 | 39 | 1010.4 |
| 20260507223257 | 59 | 235 | 3.0 | 4.0 | 0.00 | 0.00 | 0.00 | 40 | 1010.4 |
| 20260507223156 | 58 | 157 | 1.0 | 3.0 | 0.00 | 0.00 | 0.00 | 43 | 1010.4 |
| 20260507223056 | 58 | 255 | 1.0 | 4.0 | 0.00 | 0.00 | 0.00 | 44 | 1010.3 |
| 20260507222956 | 58 | 216 | 1.0 | 4.0 | 0.00 | 0.00 | 0.00 | 42 | 1010.4 |
| 20260507222755 | 58 | 241 | 1.0 | 5.0 | 0.00 | 0.00 | 0.00 | 41 | 1010.2 |
| 20260507222656 | 59 | 238 | 1.0 | 5.0 | 0.00 | 0.00 | 0.00 | 39 | 1010.4 |
| 20260507222557 | 59 | 267 | 1.0 | 5.0 | 0.00 | 0.00 | 0.00 | 41 | 1010.3 |
| 20260507222456 | 59 | 229 | 2.0 | 5.0 | 0.00 | 0.00 | 0.00 | 40 | 1010.4 |
| 20260507222255 | 59 | 336 | 1.0 | 5.0 | 0.00 | 0.00 | 0.00 | 39 | 1010.4 |
| 20260507222156 | 59 | 279 | 4.0 | 5.0 | 0.00 | 0.00 | 0.00 | 41 | 1010.4 |
| 20260507222056 | 59 | 209 | 1.0 | 5.0 | 0.00 | 0.00 | 0.00 | 40 | 1010.3 |
| 20260507221956 | 59 | 188 | 4.0 | 5.0 | 0.00 | 0.00 | 0.00 | 39 | 1010.3 |
| 20260507221855 | 59 | 254 | 2.0 | 5.0 | 0.00 | 0.00 | 0.00 | 40 | 1010.4 |
| 20260507221756 | 59 | 263 | 2.0 | 5.0 | 0.00 | 0.00 | 0.00 | 39 | 1010.3 |
| 20260507221656 | 59 | 300 | 3.0 | 5.0 | 0.00 | 0.00 | 0.00 | 40 | 1010.3 |
| 20260507221556 | 59 | 247 | 1.0 | 5.0 | 0.00 | 0.00 | 0.00 | 40 | 1010.2 |
| 20260507221256 | 59 | 189 | 3.0 | 6.0 | 0.00 | 0.00 | 0.00 | 40 | 1010.2 |
| 20260507221156 | 59 | 338 | 2.0 | 6.0 | 0.00 | 0.00 | 0.00 | 41 | 1010.3 |
| 20260507221056 | 59 | 252 | 1.0 | 6.0 | 0.00 | 0.00 | 0.00 | 38 | 1010.2 |
| 20260507220955 | 58 | 175 | 1.0 | 7.0 | 0.00 | 0.00 | 0.00 | 40 | 1010.2 |
| 20260507220856 | 58 | 311 | 2.0 | 7.0 | 0.00 | 0.00 | 0.00 | 40 | 1010.2 |
| 20260507220756 | 58 | 255 | 2.0 | 7.0 | 0.00 | 0.00 | 0.00 | 43 | 1010.2 |
| 20260507220657 | 59 | 247 | 1.0 | 7.0 | 0.00 | 0.00 | 0.00 | 42 | 1010.2 |
| 20260507220556 | 59 | 278 | 2.0 | 7.0 | 0.00 | 0.00 | 0.00 | 42 | 1010.2 |
| 20260507220457 | 59 | 250 | 2.0 | 7.0 | 0.00 | 0.00 | 0.00 | 38 | 1010.0 |
| 20260507220357 | 59 | 216 | 3.0 | 7.0 | 0.00 | 0.00 | 0.00 | 39 | 1010.1 |
| 20260507220255 | 59 | 249 | 2.0 | 7.0 | 0.00 | 0.00 | 0.00 | 40 | 1010.0 |
| 20260507220156 | 59 | 216 | 2.0 | 8.0 | 0.00 | 0.00 | 0.00 | 40 | 1009.9 |
| 20260507215959 | 60 | 273 | 1.0 | 5.0 | 0.00 | 0.00 | 0.00 | 39 | 1009.9 |
| 20260507215855 | 60 | 270 | 2.0 | 5.0 | 0.00 | 0.00 | 0.00 | 40 | 1009.9 |
| 20260507215756 | 60 | 174 | 2.0 | 5.0 | 0.00 | 0.00 | 0.00 | 38 | 1009.8 |
| 20260507215656 | 60 | 346 | 2.0 | 5.0 | 0.00 | 0.00 | 0.00 | 39 | 1009.9 |
| 20260507215457 | 60 | 296 | 1.0 | 6.0 | 0.00 | 0.00 | 0.00 | 39 | 1010.0 |
| 20260507215257 | 60 | 288 | 2.0 | 6.0 | 0.00 | 0.00 | 0.00 | 40 | 1009.9 |
| 20260507215155 | 60 | 327 | 2.0 | 6.0 | 0.00 | 0.00 | 0.00 | 39 | 1009.8 |
| 20260507215056 | 60 | 12 | 2.0 | 6.0 | 0.00 | 0.00 | 0.00 | 38 | 1009.9 |
| 20260507214956 | 60 | 261 | 2.0 | 6.0 | 0.00 | 0.00 | 0.00 | 38 | 1009.8 |
| 20260507214856 | 60 | 174 | 0.0 | 6.0 | 0.00 | 0.00 | 0.00 | 39 | 1009.9 |
| 20260507214757 | 60 | 255 | 1.0 | 6.0 | 0.00 | 0.00 | 0.00 | 37 | 1009.9 |
| 20260507214555 | 60 | 323 | 3.0 | 4.0 | 0.00 | 0.00 | 0.00 | 38 | 1009.9 |
| 20260507214456 | 60 | 302 | 1.0 | 4.0 | 0.00 | 0.00 | 0.00 | 38 | 1009.9 |
| 20260507214355 | 61 | 247 | 2.0 | 4.0 | 0.00 | 0.00 | 0.00 | 37 | 1010.0 |
| 20260507214256 | 61 | 151 | 2.0 | 4.0 | 0.00 | 0.00 | 0.00 | 40 | 1009.9 |
| 20260507214156 | 61 | 236 | 1.0 | 4.0 | 0.00 | 0.00 | 0.00 | 41 | 1009.9 |
| 20260507214055 | 61 | 215 | 2.0 | 4.0 | 0.00 | 0.00 | 0.00 | 39 | 1010.0 |
| 20260507213856 | 61 | 54 | 1.0 | 3.0 | 0.00 | 0.00 | 0.00 | 39 | 1009.9 |
| 20260507213756 | 61 | 227 | 1.0 | 3.0 | 0.00 | 0.00 | 0.00 | 40 | 1009.9 |
| 20260507213456 | 60 | 327 | 1.0 | 3.0 | 0.00 | 0.00 | 0.00 | 40 | 1009.9 |
| 20260507213356 | 59 | 277 | 1.0 | 4.0 | 0.00 | 0.00 | 0.00 | 43 | 1009.8 |
| 20260507213157 | 59 | 279 | 1.0 | 4.0 | 0.00 | 0.00 | 0.00 | 41 | 1009.8 |
| 20260507213056 | 59 | 280 | 1.0 | 4.0 | 0.00 | 0.00 | 0.00 | 39 | 1009.8 |
| 20260507212956 | 59 | 333 | 1.0 | 4.0 | 0.00 | 0.00 | 0.00 | 39 | 1009.8 |
| 20260507212756 | 59 | 310 | 2.0 | 5.0 | 0.00 | 0.00 | 0.00 | 38 | 1009.8 |
| 20260507212657 | 60 | 271 | 1.0 | 5.0 | 0.00 | 0.00 | 0.00 | 38 | 1009.8 |
| 20260507212555 | 60 | 228 | 2.0 | 5.0 | 0.00 | 0.00 | 0.00 | 38 | 1009.7 |
| 20260507212455 | 60 | 170 | 4.0 | 5.0 | 0.00 | 0.00 | 0.00 | 39 | 1009.7 |
| 20260507212355 | 60 | 164 | 1.0 | 5.0 | 0.00 | 0.00 | 0.00 | 38 | 1009.7 |
| 20260507212255 | 60 | 68 | 2.0 | 5.0 | 0.00 | 0.00 | 0.00 | 38 | 1009.7 |
| 20260507212156 | 60 | 14 | 1.0 | 5.0 | 0.00 | 0.00 | 0.00 | 38 | 1009.8 |
| 20260507212056 | 60 | 351 | 1.0 | 5.0 | 0.00 | 0.00 | 0.00 | 38 | 1009.8 |
| 20260507211956 | 60 | 261 | 1.0 | 5.0 | 0.00 | 0.00 | 0.00 | 40 | 1009.8 |
| 20260507211856 | 60 | 205 | 3.0 | 4.0 | 0.00 | 0.00 | 0.00 | 37 | 1009.9 |
| 20260507211757 | 60 | 267 | 1.0 | 4.0 | 0.00 | 0.00 | 0.00 | 37 | 1009.8 |
| 20260507211557 | 60 | 327 | 2.0 | 5.0 | 0.00 | 0.00 | 0.00 | 38 | 1009.9 |
| 20260507211456 | 60 | 338 | 2.0 | 5.0 | 0.00 | 0.00 | 0.00 | 37 | 1009.9 |
| 20260507211357 | 60 | 281 | 2.0 | 5.0 | 0.00 | 0.00 | 0.00 | 37 | 1009.9 |
| 20260507211256 | 60 | 281 | 3.0 | 5.0 | 0.00 | 0.00 | 0.00 | 39 | 1009.8 |
| 20260507211156 | 60 | 267 | 2.0 | 5.0 | 0.00 | 0.00 | 0.00 | 36 | 1009.8 |
| 20260507211056 | 60 | 311 | 4.0 | 5.0 | 0.00 | 0.00 | 0.00 | 37 | 1009.8 |
| 20260507210956 | 60 | 15 | 2.0 | 5.0 | 0.00 | 0.00 | 0.00 | 36 | 1009.8 |
| 20260507210857 | 61 | 244 | 1.0 | 5.0 | 0.00 | 0.00 | 0.00 | 36 | 1009.7 |
| 20260507210756 | 61 | 230 | 2.0 | 4.0 | 0.00 | 0.00 | 0.00 | 37 | 1009.8 |
| 20260507210555 | 61 | 202 | 3.0 | 5.0 | 0.00 | 0.00 | 0.00 | 39 | 1009.7 |
| 20260507210456 | 61 | 202 | 1.0 | 11.0 | 0.00 | 0.00 | 0.00 | 37 | 1009.7 |
| 20260507210355 | 61 | 238 | 4.0 | 11.0 | 0.00 | 0.00 | 0.00 | 40 | 1009.7 |
| 20260507210256 | 61 | 219 | 2.0 | 11.0 | 0.00 | 0.00 | 0.00 | 37 | 1009.7 |
| 20260507210056 | 62 | 254 | 2.0 | 11.0 | 0.00 | 0.00 | 0.00 | 39 | 1009.7 |
| 20260507205955 | 62 | 229 | 2.0 | 11.0 | 0.00 | 0.00 | 0.00 | 39 | 1009.7 |
| 20260507205856 | 61 | 209 | 1.0 | 11.0 | 0.00 | 0.00 | 0.00 | 38 | 1009.8 |
| 20260507205657 | 61 | 240 | 1.0 | 5.0 | 0.00 | 0.00 | 0.00 | 37 | 1009.7 |
| 20260507205556 | 60 | 254 | 2.0 | 4.0 | 0.00 | 0.00 | 0.00 | 44 | 1009.6 |
| 20260507205455 | 60 | 313 | 0.0 | 4.0 | 0.00 | 0.00 | 0.00 | 41 | 1009.7 |
| 20260507205356 | 59 | 313 | 0.0 | 4.0 | 0.00 | 0.00 | 0.00 | 39 | 1009.6 |
| 20260507205256 | 59 | 286 | 1.0 | 7.0 | 0.00 | 0.00 | 0.00 | 40 | 1009.6 |
| 20260507205156 | 59 | 286 | 1.0 | 7.0 | 0.00 | 0.00 | 0.00 | 36 | 1009.6 |
| 20260507205056 | 59 | 167 | 3.0 | 7.0 | 0.00 | 0.00 | 0.00 | 37 | 1009.7 |
| 20260507204956 | 59 | 292 | 2.0 | 7.0 | 0.00 | 0.00 | 0.00 | 37 | 1009.6 |
| 20260507204855 | 60 | 299 | 2.0 | 7.0 | 0.00 | 0.00 | 0.00 | 36 | 1009.6 |
| 20260507204656 | 60 | 278 | 3.0 | 7.0 | 0.00 | 0.00 | 0.00 | 37 | 1009.6 |
| 20260507204556 | 60 | 292 | 1.0 | 7.0 | 0.00 | 0.00 | 0.00 | 36 | 1009.6 |
| 20260507204456 | 61 | 186 | 5.0 | 6.0 | 0.00 | 0.00 | 0.00 | 36 | 1009.6 |
| 20260507204357 | 61 | 355 | 1.0 | 5.0 | 0.00 | 0.00 | 0.00 | 40 | 1009.6 |
| 20260507204156 | 61 | 238 | 1.0 | 5.0 | 0.00 | 0.00 | 0.00 | 43 | 1009.7 |
| 20260507204057 | 61 | 325 | 1.0 | 6.0 | 0.00 | 0.00 | 0.00 | 36 | 1009.7 |
| 20260507203956 | 61 | 215 | 2.0 | 6.0 | 0.00 | 0.00 | 0.00 | 36 | 1009.6 |
| 20260507203856 | 61 | 279 | 2.0 | 6.0 | 0.00 | 0.00 | 0.00 | 38 | 1009.6 |
| 20260507203756 | 61 | 253 | 1.0 | 6.0 | 0.00 | 0.00 | 0.00 | 35 | 1009.7 |
| 20260507203656 | 62 | 325 | 3.0 | 6.0 | 0.00 | 0.00 | 0.00 | 40 | 1009.7 |
| 20260507203555 | 62 | 292 | 1.0 | 7.0 | 0.00 | 0.00 | 0.00 | 40 | 1009.6 |
| 20260507203456 | 62 | 261 | 1.0 | 7.0 | 0.00 | 0.00 | 0.00 | 39 | 1009.7 |
| 20260507203357 | 62 | 48 | 3.0 | 7.0 | 0.00 | 0.00 | 0.00 | 36 | 1009.6 |
| 20260507203155 | 62 | 102 | 2.0 | 7.0 | 0.00 | 0.00 | 0.00 | 38 | 1009.6 |
| 20260507203057 | 62 | 314 | 1.0 | 10.0 | 0.00 | 0.00 | 0.00 | 37 | 1009.5 |
| 20260507202956 | 61 | 334 | 3.0 | 10.0 | 0.00 | 0.00 | 0.00 | 39 | 1009.6 |
| 20260507202855 | 61 | 266 | 1.0 | 10.0 | 0.00 | 0.00 | 0.00 | 39 | 1009.6 |
| 20260507202656 | 60 | 256 | 4.0 | 10.0 | 0.00 | 0.00 | 0.00 | 35 | 1009.6 |
| 20260507202556 | 60 | 155 | 2.0 | 10.0 | 0.00 | 0.00 | 0.00 | 36 | 1009.6 |
| 20260507202458 | 61 | 75 | 2.0 | 10.0 | 0.00 | 0.00 | 0.00 | 39 | 1009.6 |
| 20260507202357 | 61 | 224 | 3.0 | 10.0 | 0.00 | 0.00 | 0.00 | 38 | 1009.7 |
| 20260507202257 | 61 | 46 | 2.0 | 10.0 | 0.00 | 0.00 | 0.00 | 40 | 1009.8 |
| 20260507202156 | 61 | 225 | 3.0 | 9.0 | 0.00 | 0.00 | 0.00 | 36 | 1009.6 |
| 20260507202056 | 61 | 30 | 1.0 | 9.0 | 0.00 | 0.00 | 0.00 | 39 | 1009.7 |
| 20260507201955 | 61 | 249 | 1.0 | 9.0 | 0.00 | 0.00 | 0.00 | 40 | 1009.7 |
| 20260507201857 | 61 | 300 | 1.0 | 9.0 | 0.00 | 0.00 | 0.00 | 36 | 1009.7 |
| 20260507201756 | 62 | 141 | 0.0 | 9.0 | 0.00 | 0.00 | 0.00 | 36 | 1009.7 |
| 20260507201656 | 62 | 166 | 3.0 | 9.0 | 0.00 | 0.00 | 0.00 | 35 | 1009.7 |
| 20260507201455 | 63 | 168 | 2.0 | 9.0 | 0.00 | 0.00 | 0.00 | 41 | 1009.7 |
| 20260507201356 | 63 | 250 | 1.0 | 3.0 | 0.00 | 0.00 | 0.00 | 41 | 1009.7 |
| 20260507201256 | 63 | 267 | 2.0 | 4.0 | 0.00 | 0.00 | 0.00 | 36 | 1009.7 |
| 20260507201056 | 62 | 180 | 2.0 | 4.0 | 0.00 | 0.00 | 0.00 | 38 | 1009.6 |
| 20260507200957 | 62 | 333 | 1.0 | 4.0 | 0.00 | 0.00 | 0.00 | 38 | 1009.7 |
| 20260507200857 | 62 | 284 | 1.0 | 9.0 | 0.00 | 0.00 | 0.00 | 46 | 1009.7 |
| 20260507200757 | 62 | 217 | 1.0 | 9.0 | 0.00 | 0.00 | 0.00 | 44 | 1009.7 |
| 20260507200656 | 62 | 269 | 1.0 | 9.0 | 0.00 | 0.00 | 0.00 | 38 | 1009.7 |
| 20260507200556 | 62 | 236 | 1.0 | 9.0 | 0.00 | 0.00 | 0.00 | 41 | 1009.7 |
| 20260507200457 | 61 | 246 | 2.0 | 9.0 | 0.00 | 0.00 | 0.00 | 39 | 1009.7 |
| 20260507200357 | 61 | 222 | 2.0 | 9.0 | 0.00 | 0.00 | 0.00 | 42 | 1009.7 |
| 20260507200256 | 60 | 199 | 3.0 | 9.0 | 0.00 | 0.00 | 0.00 | 39 | 1009.8 |
| 20260507200155 | 60 | 314 | 1.0 | 9.0 | 0.00 | 0.00 | 0.00 | 38 | 1009.8 |
| 20260507200056 | 60 | 165 | 7.0 | 9.0 | 0.00 | 0.00 | 0.00 | 38 | 1009.8 |
| 20260507195957 | 60 | 197 | 3.0 | 8.0 | 0.00 | 0.00 | 0.00 | 41 | 1009.9 |
| 20260507195857 | 61 | 220 | 5.0 | 8.0 | 0.00 | 0.00 | 0.00 | 38 | 1009.9 |
| 20260507195656 | 61 | 198 | 2.0 | 7.0 | 0.00 | 0.00 | 0.00 | 39 | 1010.0 |
| 20260507195455 | 62 | 174 | 2.0 | 7.0 | 0.00 | 0.00 | 0.00 | 36 | 1009.9 |
| 20260507195356 | 62 | 236 | 3.0 | 7.0 | 0.00 | 0.00 | 0.00 | 38 | 1009.9 |
| 20260507195256 | 62 | 265 | 2.0 | 7.0 | 0.00 | 0.00 | 0.00 | 37 | 1009.9 |
| 20260507195155 | 62 | 271 | 2.0 | 7.0 | 0.00 | 0.00 | 0.00 | 38 | 1009.9 |
| 20260507195056 | 62 | 239 | 1.0 | 7.0 | 0.00 | 0.00 | 0.00 | 37 | 1009.8 |
| 20260507194856 | 62 | 198 | 5.0 | 7.0 | 0.00 | 0.00 | 0.00 | 37 | 1009.9 |
| 20260507194756 | 62 | 211 | 3.0 | 8.0 | 0.00 | 0.00 | 0.00 | 39 | 1009.8 |
| 20260507194656 | 61 | 274 | 1.0 | 10.0 | 0.00 | 0.00 | 0.00 | 40 | 1009.9 |
| 20260507194557 | 61 | 261 | 1.0 | 10.0 | 0.00 | 0.00 | 0.00 | 37 | 1010.0 |
| 20260507194457 | 61 | 257 | 2.0 | 10.0 | 0.00 | 0.00 | 0.00 | 40 | 1010.0 |
| 20260507194356 | 61 | 225 | 0.0 | 10.0 | 0.00 | 0.00 | 0.00 | 37 | 1010.0 |
| 20260507194255 | 61 | 263 | 1.0 | 10.0 | 0.00 | 0.00 | 0.00 | 36 | 1010.1 |
| 20260507194157 | 62 | 209 | 3.0 | 10.0 | 0.00 | 0.00 | 0.00 | 37 | 1010.1 |
| 20260507194056 | 62 | 281 | 3.0 | 10.0 | 0.00 | 0.00 | 0.00 | 36 | 1010.1 |
| 20260507193956 | 63 | 248 | 2.0 | 10.0 | 0.00 | 0.00 | 0.00 | 36 | 1010.1 |
| 20260507193756 | 63 | 228 | 4.0 | 10.0 | 0.00 | 0.00 | 0.00 | 39 | 1010.0 |
| 20260507193656 | 62 | 257 | 3.0 | 8.0 | 0.00 | 0.00 | 0.00 | 44 | 1010.1 |
| 20260507193557 | 61 | 257 | 2.0 | 7.0 | 0.00 | 0.00 | 0.00 | 43 | 1010.0 |
| 20260507193455 | 60 | 291 | 1.0 | 7.0 | 0.00 | 0.00 | 0.00 | 39 | 1010.1 |
| 20260507193356 | 60 | 205 | 3.0 | 7.0 | 0.00 | 0.00 | 0.00 | 38 | 1010.1 |
| 20260507193256 | 60 | 268 | 2.0 | 7.0 | 0.00 | 0.00 | 0.00 | 38 | 1010.1 |
| 20260507193157 | 60 | 256 | 1.0 | 10.0 | 0.00 | 0.00 | 0.00 | 36 | 1010.1 |
| 20260507193057 | 61 | 257 | 3.0 | 10.0 | 0.00 | 0.00 | 0.00 | 35 | 1010.1 |
| 20260507192955 | 61 | 230 | 5.0 | 10.0 | 0.00 | 0.00 | 0.00 | 35 | 1010.1 |
| 20260507192857 | 62 | 208 | 5.0 | 10.0 | 0.00 | 0.00 | 0.00 | 35 | 1010.0 |
| 20260507192756 | 62 | 264 | 4.0 | 10.0 | 0.00 | 0.00 | 0.00 | 35 | 1010.1 |
| 20260507192656 | 63 | 113 | 4.0 | 10.0 | 0.00 | 0.00 | 0.00 | 39 | 1009.9 |
| 20260507192556 | 63 | 290 | 3.0 | 10.0 | 0.00 | 0.00 | 0.00 | 37 | 1010.0 |
| 20260507192457 | 63 | 176 | 3.0 | 10.0 | 0.00 | 0.00 | 0.00 | 36 | 1010.1 |
| 20260507192357 | 63 | 165 | 7.0 | 12.0 | 0.00 | 0.00 | 0.00 | 38 | 1010.1 |
| 20260507192255 | 63 | 223 | 3.0 | 10.0 | 0.00 | 0.00 | 0.00 | 37 | 1010.1 |
| 20260507192156 | 63 | 217 | 4.0 | 10.0 | 0.00 | 0.00 | 0.00 | 40 | 1010.1 |
| 20260507192056 | 63 | 173 | 2.0 | 10.0 | 0.00 | 0.00 | 0.00 | 36 | 1010.1 |
| 20260507191956 | 63 | 270 | 4.0 | 10.0 | 0.00 | 0.00 | 0.00 | 43 | 1010.1 |
| 20260507191855 | 63 | 296 | 1.0 | 10.0 | 0.00 | 0.00 | 0.00 | 38 | 1010.1 |
| 20260507191757 | 62 | 188 | 2.0 | 9.0 | 0.00 | 0.00 | 0.00 | 39 | 1010.1 |
| 20260507191656 | 62 | 271 | 3.0 | 9.0 | 0.00 | 0.00 | 0.00 | 39 | 1010.1 |
| 20260507191556 | 62 | 281 | 2.0 | 9.0 | 0.00 | 0.00 | 0.00 | 41 | 1010.1 |
| 20260507191456 | 61 | 5 | 1.0 | 9.0 | 0.00 | 0.00 | 0.00 | 39 | 1010.1 |
| 20260507191355 | 61 | 246 | 3.0 | 9.0 | 0.00 | 0.00 | 0.00 | 38 | 1010.2 |
| 20260507191255 | 61 | 236 | 3.0 | 9.0 | 0.00 | 0.00 | 0.00 | 39 | 1010.2 |
| 20260507191056 | 61 | 255 | 4.0 | 10.0 | 0.00 | 0.00 | 0.00 | 39 | 1010.2 |
| 20260507190956 | 61 | 220 | 2.0 | 10.0 | 0.00 | 0.00 | 0.00 | 40 | 1010.1 |
| 20260507190856 | 62 | 206 | 3.0 | 10.0 | 0.00 | 0.00 | 0.00 | 41 | 1010.2 |
| 20260507190757 | 62 | 221 | 1.0 | 10.0 | 0.00 | 0.00 | 0.00 | 38 | 1010.1 |
| 20260507190655 | 62 | 169 | 5.0 | 10.0 | 0.00 | 0.00 | 0.00 | 44 | 1010.1 |
| 20260507190556 | 62 | 246 | 1.0 | 10.0 | 0.00 | 0.00 | 0.00 | 41 | 1010.2 |
| 20260507190356 | 62 | 236 | 6.0 | 10.0 | 0.00 | 0.00 | 0.00 | 38 | 1010.2 |
| 20260507190256 | 62 | 195 | 9.0 | 9.0 | 0.00 | 0.00 | 0.00 | 38 | 1010.2 |
| 20260507190156 | 62 | 269 | 6.0 | 8.0 | 0.00 | 0.00 | 0.00 | 38 | 1010.1 |
| 20260507190056 | 62 | 255 | 2.0 | 8.0 | 0.00 | 0.00 | 0.00 | 44 | 1010.2 |
| 20260507185956 | 61 | 181 | 2.0 | 6.0 | 0.00 | 0.00 | 0.00 | 44 | 1010.2 |
| 20260507185856 | 61 | 251 | 1.0 | 6.0 | 0.00 | 0.00 | 0.00 | 42 | 1010.2 |
| 20260507185657 | 60 | 330 | 2.0 | 6.0 | 0.00 | 0.00 | 0.00 | 38 | 1010.2 |
| 20260507185555 | 60 | 303 | 2.0 | 6.0 | 0.00 | 0.00 | 0.00 | 41 | 1010.2 |
| 20260507185456 | 60 | 269 | 2.0 | 6.0 | 0.00 | 0.00 | 0.00 | 43 | 1010.3 |
| 20260507185355 | 60 | 346 | 1.0 | 6.0 | 0.00 | 0.00 | 0.00 | 42 | 1010.2 |
| 20260507185257 | 60 | 209 | 4.0 | 6.0 | 0.00 | 0.00 | 0.00 | 39 | 1010.2 |
| 20260507185056 | 60 | 150 | 1.0 | 4.0 | 0.00 | 0.00 | 0.00 | 40 | 1010.3 |
| 20260507184957 | 60 | 215 | 1.0 | 4.0 | 0.00 | 0.00 | 0.00 | 41 | 1010.3 |
| 20260507184856 | 60 | 33 | 1.0 | 4.0 | 0.00 | 0.00 | 0.00 | 40 | 1010.3 |
| 20260507184755 | 61 | 163 | 1.0 | 4.0 | 0.00 | 0.00 | 0.00 | 40 | 1010.3 |
| 20260507184655 | 61 | 240 | 1.0 | 4.0 | 0.00 | 0.00 | 0.00 | 43 | 1010.4 |
| 20260507184458 | 61 | 296 | 1.0 | 8.0 | 0.00 | 0.00 | 0.00 | 47 | 1010.3 |
| 20260507184256 | 60 | 294 | 3.0 | 9.0 | 0.00 | 0.00 | 0.00 | 42 | 1010.4 |
| 20260507184156 | 60 | 273 | 2.0 | 9.0 | 0.00 | 0.00 | 0.00 | 46 | 1010.4 |
| 20260507184057 | 60 | 225 | 2.0 | 9.0 | 0.00 | 0.00 | 0.00 | 40 | 1010.4 |
| 20260507183956 | 61 | 249 | 2.0 | 9.0 | 0.00 | 0.00 | 0.00 | 42 | 1010.4 |
| 20260507183855 | 61 | 230 | 1.0 | 9.0 | 0.00 | 0.00 | 0.00 | 45 | 1010.4 |
| 20260507183557 | 62 | 229 | 6.0 | 9.0 | 0.00 | 0.00 | 0.00 | 43 | 1010.5 |
| 20260507183457 | 62 | 192 | 2.0 | 8.0 | 0.00 | 0.00 | 0.00 | 46 | 1010.4 |
| 20260507183357 | 61 | 184 | 2.0 | 8.0 | 0.00 | 0.00 | 0.00 | 42 | 1010.4 |
| 20260507183256 | 61 | 275 | 3.0 | 8.0 | 0.00 | 0.00 | 0.00 | 42 | 1010.4 |
| 20260507183156 | 62 | 205 | 3.0 | 8.0 | 0.00 | 0.00 | 0.00 | 43 | 1010.4 |
| 20260507183055 | 62 | 209 | 3.0 | 8.0 | 0.00 | 0.00 | 0.00 | 41 | 1010.4 |
| 20260507182957 | 62 | 188 | 3.0 | 8.0 | 0.00 | 0.00 | 0.00 | 41 | 1010.4 |
| 20260507182856 | 63 | 200 | 4.0 | 8.0 | 0.00 | 0.00 | 0.00 | 44 | 1010.4 |
| 20260507182755 | 62 | 215 | 2.0 | 8.0 | 0.00 | 0.00 | 0.00 | 42 | 1010.4 |
| 20260507182655 | 62 | 191 | 7.0 | 8.0 | 0.00 | 0.00 | 0.00 | 42 | 1010.4 |
| 20260507182556 | 61 | 281 | 2.0 | 8.0 | 0.00 | 0.00 | 0.00 | 43 | 1010.4 |
| 20260507182457 | 61 | 283 | 2.0 | 8.0 | 0.00 | 0.00 | 0.00 | 48 | 1010.4 |
| 20260507182355 | 61 | 236 | 1.0 | 8.0 | 0.00 | 0.00 | 0.00 | 46 | 1010.4 |
| 20260507182256 | 61 | 220 | 2.0 | 8.0 | 0.00 | 0.00 | 0.00 | 40 | 1010.4 |
| 20260507182056 | 61 | 146 | 2.0 | 9.0 | 0.00 | 0.00 | 0.00 | 39 | 1010.5 |
| 20260507181956 | 61 | 146 | 1.0 | 9.0 | 0.00 | 0.00 | 0.00 | 40 | 1010.4 |
| 20260507181857 | 62 | 220 | 2.0 | 9.0 | 0.00 | 0.00 | 0.00 | 42 | 1010.5 |
| 20260507181756 | 62 | 243 | 1.0 | 9.0 | 0.00 | 0.00 | 0.00 | 48 | 1010.5 |
| 20260507181456 | 62 | 250 | 2.0 | 9.0 | 0.00 | 0.00 | 0.00 | 45 | 1010.5 |
| 20260507181355 | 62 | 322 | 2.0 | 9.0 | 0.00 | 0.00 | 0.00 | 39 | 1010.5 |
| 20260507181156 | 62 | 190 | 4.0 | 9.0 | 0.00 | 0.00 | 0.00 | 45 | 1010.4 |
| 20260507181056 | 62 | 230 | 6.0 | 8.0 | 0.00 | 0.00 | 0.00 | 46 | 1010.4 |
| 20260507180955 | 61 | 222 | 5.0 | 8.0 | 0.00 | 0.00 | 0.00 | 43 | 1010.5 |
| 20260507180756 | 61 | 232 | 3.0 | 7.0 | 0.00 | 0.00 | 0.00 | 43 | 1010.6 |
| 20260507180656 | 61 | 207 | 2.0 | 7.0 | 0.00 | 0.00 | 0.00 | 45 | 1010.6 |
| 20260507180456 | 62 | 177 | 4.0 | 7.0 | 0.00 | 0.00 | 0.00 | 42 | 1010.5 |
| 20260507180356 | 62 | 198 | 2.0 | 8.0 | 0.00 | 0.00 | 0.00 | 42 | 1010.5 |
| 20260507180257 | 62 | 247 | 0.0 | 8.0 | 0.00 | 0.00 | 0.00 | 42 | 1010.5 |
| 20260507180157 | 63 | 126 | 2.0 | 8.0 | 0.00 | 0.00 | 0.00 | 40 | 1010.5 |
| 20260507180056 | 63 | 234 | 5.0 | 8.0 | 0.00 | 0.00 | 0.00 | 48 | 1010.5 |
| 20260507175958 | 63 | 248 | 3.0 | 8.0 | 0.00 | 0.00 | 0.00 | 45 | 1010.5 |
| 20260507175755 | 62 | 298 | 3.0 | 10.0 | 0.00 | 0.00 | 0.00 | 45 | 1010.6 |
| 20260507175656 | 62 | 234 | 4.0 | 10.0 | 0.00 | 0.00 | 0.00 | 43 | 1010.6 |
| 20260507175556 | 62 | 224 | 3.0 | 10.0 | 0.00 | 0.00 | 0.00 | 42 | 1010.6 |
| 20260507175456 | 62 | 208 | 7.0 | 10.0 | 0.00 | 0.00 | 0.00 | 42 | 1010.6 |
| 20260507175357 | 62 | 161 | 9.0 | 10.0 | 0.00 | 0.00 | 0.00 | 43 | 1010.6 |
| 20260507175257 | 61 | 172 | 2.0 | 10.0 | 0.00 | 0.00 | 0.00 | 49 | 1010.6 |
| 20260507175156 | 61 | 268 | 1.0 | 10.0 | 0.00 | 0.00 | 0.00 | 41 | 1010.7 |
| 20260507175056 | 61 | 265 | 2.0 | 10.0 | 0.00 | 0.00 | 0.00 | 40 | 1010.7 |
| 20260507174955 | 61 | 223 | 3.0 | 10.0 | 0.00 | 0.00 | 0.00 | 41 | 1010.8 |
| 20260507174855 | 61 | 240 | 6.0 | 8.0 | 0.00 | 0.00 | 0.00 | 46 | 1010.9 |
| 20260507174755 | 62 | 244 | 3.0 | 8.0 | 0.00 | 0.00 | 0.00 | 42 | 1010.8 |
| 20260507174656 | 62 | 222 | 2.0 | 7.0 | 0.00 | 0.00 | 0.00 | 49 | 1010.7 |
| 20260507174556 | 62 | 63 | 2.0 | 7.0 | 0.00 | 0.00 | 0.00 | 47 | 1010.8 |
| 20260507174456 | 61 | 250 | 1.0 | 7.0 | 0.00 | 0.00 | 0.00 | 51 | 1010.8 |
| 20260507174257 | 60 | 92 | 2.0 | 7.0 | 0.00 | 0.00 | 0.00 | 50 | 1010.9 |
| 20260507174156 | 60 | 285 | 1.0 | 7.0 | 0.00 | 0.00 | 0.00 | 42 | 1010.9 |
| 20260507173956 | 61 | 229 | 3.0 | 9.0 | 0.00 | 0.00 | 0.00 | 48 | 1010.9 |
| 20260507173855 | 61 | 232 | 4.0 | 9.0 | 0.00 | 0.00 | 0.00 | 46 | 1011.0 |
| 20260507173756 | 61 | 251 | 3.0 | 9.0 | 0.00 | 0.00 | 0.00 | 46 | 1010.9 |
| 20260507173656 | 60 | 184 | 3.0 | 15.0 | 0.00 | 0.00 | 0.00 | 50 | 1010.9 |
| 20260507173556 | 60 | 144 | 2.0 | 15.0 | 0.00 | 0.00 | 0.00 | 45 | 1010.9 |
| 20260507173456 | 60 | 192 | 2.0 | 15.0 | 0.00 | 0.00 | 0.00 | 43 | 1010.9 |
| 20260507173257 | 61 | 216 | 6.0 | 15.0 | 0.00 | 0.00 | 0.00 | 45 | 1011.0 |
| 20260507173156 | 61 | 275 | 6.0 | 15.0 | 0.00 | 0.00 | 0.00 | 52 | 1011.0 |
| 20260507173057 | 60 | 211 | 4.0 | 15.0 | 0.00 | 0.00 | 0.00 | 49 | 1011.0 |
| 20260507172956 | 60 | 250 | 3.0 | 15.0 | 0.00 | 0.00 | 0.00 | 44 | 1010.9 |
| 20260507172856 | 59 | 222 | 9.0 | 15.0 | 0.00 | 0.00 | 0.00 | 45 | 1010.9 |
| 20260507172656 | 59 | 248 | 2.0 | 7.0 | 0.00 | 0.00 | 0.00 | 48 | 1010.9 |
| 20260507172557 | 59 | 215 | 3.0 | 7.0 | 0.00 | 0.00 | 0.00 | 44 | 1011.0 |
| 20260507172456 | 60 | 219 | 3.0 | 7.0 | 0.00 | 0.00 | 0.00 | 49 | 1011.1 |
| 20260507172355 | 60 | 244 | 4.0 | 5.0 | 0.00 | 0.00 | 0.00 | 47 | 1011.0 |
| 20260507172257 | 59 | 192 | 3.0 | 4.0 | 0.00 | 0.00 | 0.00 | 52 | 1011.1 |
| 20260507172155 | 58 | 189 | 1.0 | 4.0 | 0.00 | 0.00 | 0.00 | 50 | 1011.0 |
| 20260507172056 | 58 | 228 | 3.0 | 4.0 | 0.00 | 0.00 | 0.00 | 53 | 1011.0 |
| 20260507171956 | 57 | 336 | 1.0 | 3.0 | 0.00 | 0.00 | 0.00 | 45 | 1011.1 |
| 20260507171856 | 58 | 342 | 1.0 | 3.0 | 0.00 | 0.00 | 0.00 | 45 | 1011.2 |
| 20260507171756 | 58 | 355 | 1.0 | 3.0 | 0.00 | 0.00 | 0.00 | 47 | 1011.1 |
| 20260507171657 | 59 | 349 | 1.0 | 3.0 | 0.00 | 0.00 | 0.00 | 46 | 1011.2 |
| 20260507171556 | 59 | 317 | 2.0 | 4.0 | 0.00 | 0.00 | 0.00 | 45 | 1011.3 |
| 20260507171455 | 60 | 293 | 1.0 | 4.0 | 0.00 | 0.00 | 0.00 | 46 | 1011.3 |
| 20260507171355 | 60 | 284 | 1.0 | 4.0 | 0.00 | 0.00 | 0.00 | 50 | 1011.3 |
| 20260507171256 | 60 | 277 | 1.0 | 4.0 | 0.00 | 0.00 | 0.00 | 49 | 1011.3 |
| 20260507171056 | 60 | 300 | 1.0 | 6.0 | 0.00 | 0.00 | 0.00 | 52 | 1011.3 |
| 20260507170956 | 59 | 301 | 2.0 | 6.0 | 0.00 | 0.00 | 0.00 | 47 | 1011.3 |
| 20260507170858 | 59 | 269 | 0.0 | 6.0 | 0.00 | 0.00 | 0.00 | 51 | 1011.3 |
| 20260507170556 | 58 | 231 | 2.0 | 6.0 | 0.00 | 0.00 | 0.00 | 53 | 1011.3 |
| 20260507170457 | 58 | 242 | 2.0 | 6.0 | 0.00 | 0.00 | 0.00 | 50 | 1011.3 |
| 20260507170356 | 57 | 205 | 3.0 | 6.0 | 0.00 | 0.00 | 0.00 | 47 | 1011.4 |
| 20260507170255 | 58 | 178 | 3.0 | 6.0 | 0.00 | 0.00 | 0.00 | 49 | 1011.4 |
| 20260507170155 | 58 | 201 | 1.0 | 6.0 | 0.00 | 0.00 | 0.00 | 49 | 1011.5 |
| 20260507170056 | 58 | 267 | 1.0 | 6.0 | 0.00 | 0.00 | 0.00 | 46 | 1011.4 |
| 20260507165955 | 59 | 281 | 3.0 | 6.0 | 0.00 | 0.00 | 0.00 | 45 | 1011.5 |
| 20260507165855 | 59 | 240 | 5.0 | 6.0 | 0.00 | 0.00 | 0.00 | 46 | 1011.4 |
| 20260507165755 | 59 | 254 | 7.0 | 7.0 | 0.00 | 0.00 | 0.00 | 57 | 1011.4 |
| 20260507165655 | 59 | 250 | 1.0 | 7.0 | 0.00 | 0.00 | 0.00 | 56 | 1011.5 |
| 20260507165555 | 58 | 273 | 2.0 | 7.0 | 0.00 | 0.00 | 0.00 | 53 | 1011.4 |
| 20260507165456 | 58 | 236 | 2.0 | 7.0 | 0.00 | 0.00 | 0.00 | 50 | 1011.5 |
| 20260507165355 | 57 | 243 | 2.0 | 7.0 | 0.00 | 0.00 | 0.00 | 50 | 1011.4 |
| 20260507165254 | 57 | 257 | 1.0 | 7.0 | 0.00 | 0.00 | 0.00 | 47 | 1011.4 |
| 20260507165154 | 58 | 255 | 1.0 | 7.0 | 0.00 | 0.00 | 0.00 | 45 | 1011.4 |
| 20260507165054 | 58 | 231 | 3.0 | 7.0 | 0.00 | 0.00 | 0.00 | 44 | 1011.5 |
| 20260507164955 | 59 | 197 | 4.0 | 7.0 | 0.00 | 0.00 | 0.00 | 47 | 1011.4 |
| 20260507164855 | 59 | 222 | 2.0 | 7.0 | 0.00 | 0.00 | 0.00 | 47 | 1011.4 |
| 20260507164655 | 58 | 263 | 1.0 | 8.0 | 0.00 | 0.00 | 0.00 | 51 | 1011.4 |
| 20260507164556 | 58 | 190 | 3.0 | 8.0 | 0.00 | 0.00 | 0.00 | 47 | 1011.4 |
| 20260507164455 | 57 | 252 | 2.0 | 8.0 | 0.00 | 0.00 | 0.00 | 50 | 1011.5 |
| 20260507164355 | 57 | 214 | 1.0 | 8.0 | 0.00 | 0.00 | 0.00 | 46 | 1011.5 |
| 20260507164257 | 57 | 241 | 3.0 | 8.0 | 0.00 | 0.00 | 0.00 | 47 | 1011.5 |
| 20260507164155 | 58 | 159 | 2.0 | 8.0 | 0.00 | 0.00 | 0.00 | 46 | 1011.6 |
| 20260507163756 | 58 | 188 | 2.0 | 8.0 | 0.00 | 0.00 | 0.00 | 47 | 1011.5 |
| 20260507163654 | 58 | 248 | 2.0 | 9.0 | 0.00 | 0.00 | 0.00 | 46 | 1011.5 |
| 20260507163355 | 58 | 261 | 8.0 | 10.0 | 0.00 | 0.00 | 0.00 | 50 | 1011.6 |
| 20260507163155 | 58 | 225 | 5.0 | 10.0 | 0.00 | 0.00 | 0.00 | 48 | 1011.6 |
| 20260507163057 | 58 | 277 | 2.0 | 10.0 | 0.00 | 0.00 | 0.00 | 46 | 1011.6 |
| 20260507162955 | 59 | 248 | 1.0 | 10.0 | 0.00 | 0.00 | 0.00 | 44 | 1011.6 |
| 20260507162855 | 59 | 244 | 3.0 | 10.0 | 0.00 | 0.00 | 0.00 | 44 | 1011.6 |
| 20260507162755 | 60 | 227 | 6.0 | 10.0 | 0.00 | 0.00 | 0.00 | 46 | 1011.6 |
| 20260507162655 | 60 | 280 | 1.0 | 10.0 | 0.00 | 0.00 | 0.00 | 45 | 1011.5 |
| 20260507162455 | 61 | 155 | 4.0 | 6.0 | 0.00 | 0.00 | 0.00 | 46 | 1011.5 |
| 20260507162355 | 61 | 248 | 2.0 | 7.0 | 0.00 | 0.00 | 0.00 | 44 | 1011.6 |
| 20260507162255 | 61 | 157 | 5.0 | 7.0 | 0.00 | 0.00 | 0.00 | 47 | 1011.6 |
| 20260507162155 | 61 | 275 | 2.0 | 7.0 | 0.00 | 0.00 | 0.00 | 46 | 1011.6 |
| 20260507162054 | 61 | 205 | 4.0 | 9.0 | 0.00 | 0.00 | 0.00 | 46 | 1011.6 |
| 20260507161954 | 61 | 144 | 2.0 | 9.0 | 0.00 | 0.00 | 0.00 | 47 | 1011.5 |
| 20260507161856 | 61 | 255 | 3.0 | 9.0 | 0.00 | 0.00 | 0.00 | 47 | 1011.6 |
| 20260507161755 | 61 | 139 | 2.0 | 9.0 | 0.00 | 0.00 | 0.00 | 44 | 1011.6 |
| 20260507161655 | 61 | 187 | 4.0 | 12.0 | 0.00 | 0.00 | 0.00 | 45 | 1011.6 |
| 20260507161454 | 60 | 229 | 6.0 | 12.0 | 0.00 | 0.00 | 0.00 | 48 | 1011.6 |
| 20260507161355 | 60 | 257 | 2.0 | 12.0 | 0.00 | 0.00 | 0.00 | 46 | 1011.7 |
| 20260507161254 | 60 | 219 | 1.0 | 12.0 | 0.00 | 0.00 | 0.00 | 44 | 1011.6 |
| 20260507161155 | 60 | 194 | 4.0 | 12.0 | 0.00 | 0.00 | 0.00 | 42 | 1011.7 |
| 20260507160955 | 60 | 188 | 1.0 | 12.0 | 0.00 | 0.00 | 0.00 | 49 | 1011.6 |
| 20260507160854 | 59 | 265 | 4.0 | 12.0 | 0.00 | 0.00 | 0.00 | 44 | 1011.6 |
| 20260507160655 | 59 | 190 | 4.0 | 10.0 | 0.00 | 0.00 | 0.00 | 45 | 1011.6 |
| 20260507160455 | 58 | 211 | 4.0 | 10.0 | 0.00 | 0.00 | 0.00 | 51 | 1011.7 |
| 20260507160355 | 57 | 242 | 1.0 | 10.0 | 0.00 | 0.00 | 0.00 | 52 | 1011.7 |
| 20260507160254 | 57 | 271 | 2.0 | 10.0 | 0.00 | 0.00 | 0.00 | 43 | 1011.7 |
| 20260507160156 | 57 | 161 | 4.0 | 10.0 | 0.00 | 0.00 | 0.00 | 42 | 1011.8 |
| 20260507155957 | 58 | 194 | 6.0 | 10.0 | 0.00 | 0.00 | 0.00 | 46 | 1011.7 |
| 20260507155855 | 59 | 271 | 2.0 | 10.0 | 0.00 | 0.00 | 0.00 | 43 | 1011.8 |
| 20260507155756 | 59 | 196 | 6.0 | 11.0 | 0.00 | 0.00 | 0.00 | 46 | 1011.7 |
| 20260507155656 | 59 | 198 | 3.0 | 8.0 | 0.00 | 0.00 | 0.00 | 49 | 1011.7 |
| 20260507155557 | 59 | 199 | 5.0 | 7.0 | 0.00 | 0.00 | 0.00 | 42 | 1011.8 |
| 20260507155456 | 59 | 99 | 4.0 | 8.0 | 0.00 | 0.00 | 0.00 | 53 | 1011.8 |
| 20260507155356 | 58 | 217 | 3.0 | 7.0 | 0.00 | 0.00 | 0.00 | 52 | 1011.8 |
| 20260507155258 | 58 | 202 | 1.0 | 7.0 | 0.00 | 0.00 | 0.00 | 52 | 1011.8 |
| 20260507155057 | 57 | 208 | 0.0 | 7.0 | 0.00 | 0.00 | 0.00 | 50 | 1011.8 |
| 20260507154956 | 57 | 172 | 3.0 | 7.0 | 0.00 | 0.00 | 0.00 | 46 | 1011.8 |
| 20260507154855 | 57 | 190 | 3.0 | 9.0 | 0.00 | 0.00 | 0.00 | 48 | 1011.8 |
| 20260507154755 | 57 | 206 | 2.0 | 9.0 | 0.00 | 0.00 | 0.00 | 46 | 1011.8 |
| 20260507154556 | 57 | 160 | 4.0 | 9.0 | 0.00 | 0.00 | 0.00 | 46 | 1011.8 |
| 20260507154356 | 57 | 103 | 1.0 | 9.0 | 0.00 | 0.00 | 0.00 | 46 | 1011.9 |
| 20260507154256 | 57 | 266 | 0.0 | 9.0 | 0.00 | 0.00 | 0.00 | 45 | 1011.9 |
| 20260507154157 | 57 | 251 | 1.0 | 9.0 | 0.00 | 0.00 | 0.00 | 46 | 1011.9 |
| 20260507153956 | 57 | 229 | 2.0 | 5.0 | 0.00 | 0.00 | 0.00 | 48 | 1012.0 |
| 20260507153856 | 57 | 259 | 1.0 | 5.0 | 0.00 | 0.00 | 0.00 | 47 | 1011.9 |
| 20260507153756 | 57 | 355 | 0.0 | 5.0 | 0.00 | 0.00 | 0.00 | 45 | 1011.9 |
| 20260507153656 | 58 | 179 | 3.0 | 5.0 | 0.00 | 0.00 | 0.00 | 51 | 1011.9 |
| 20260507153556 | 58 | 103 | 1.0 | 5.0 | 0.00 | 0.00 | 0.00 | 44 | 1012.0 |
| 20260507153355 | 59 | 268 | 2.0 | 7.0 | 0.00 | 0.00 | 0.00 | 43 | 1011.9 |
| 20260507153155 | 58 | 266 | 1.0 | 8.0 | 0.00 | 0.00 | 0.00 | 58 | 1012.0 |
| 20260507153057 | 58 | 215 | 1.0 | 8.0 | 0.00 | 0.00 | 0.00 | 52 | 1012.0 |
| 20260507152957 | 57 | 311 | 1.0 | 8.0 | 0.00 | 0.00 | 0.00 | 53 | 1012.0 |
| 20260507152756 | 57 | 283 | 2.0 | 8.0 | 0.00 | 0.00 | 0.00 | 49 | 1012.0 |
| 20260507152657 | 56 | 242 | 2.0 | 9.0 | 0.00 | 0.00 | 0.00 | 49 | 1012.0 |
| 20260507152558 | 57 | 223 | 3.0 | 9.0 | 0.00 | 0.00 | 0.00 | 48 | 1012.0 |
| 20260507152455 | 57 | 260 | 1.0 | 9.0 | 0.00 | 0.00 | 0.00 | 47 | 1012.1 |
| 20260507152256 | 56 | 217 | 1.0 | 9.0 | 0.00 | 0.00 | 0.00 | 48 | 1012.0 |
| 20260507152055 | 57 | 321 | 1.0 | 9.0 | 0.00 | 0.00 | 0.00 | 49 | 1012.1 |
| 20260507151956 | 57 | 302 | 2.0 | 9.0 | 0.00 | 0.00 | 0.00 | 47 | 1012.1 |
| 20260507151856 | 57 | 192 | 9.0 | 9.0 | 0.00 | 0.00 | 0.00 | 55 | 1012.1 |
| 20260507151757 | 56 | 185 | 3.0 | 8.0 | 0.00 | 0.00 | 0.00 | 49 | 1012.2 |
| 20260507151656 | 56 | 186 | 2.0 | 8.0 | 0.00 | 0.00 | 0.00 | 50 | 1012.1 |
| 20260507151456 | 56 | 196 | 6.0 | 8.0 | 0.00 | 0.00 | 0.00 | 49 | 1012.2 |
| 20260507151355 | 56 | 183 | 1.0 | 7.0 | 0.00 | 0.00 | 0.00 | 48 | 1012.2 |
| 20260507151156 | 56 | 220 | 5.0 | 5.0 | 0.00 | 0.00 | 0.00 | 51 | 1012.2 |
| 20260507150958 | 56 | 235 | 2.0 | 5.0 | 0.00 | 0.00 | 0.00 | 53 | 1012.3 |
| 20260507150856 | 55 | 262 | 2.0 | 4.0 | 0.00 | 0.00 | 0.00 | 53 | 1012.3 |
| 20260507150756 | 55 | 212 | 1.0 | 4.0 | 0.00 | 0.00 | 0.00 | 53 | 1012.3 |
| 20260507150657 | 55 | 225 | 2.0 | 6.0 | 0.00 | 0.00 | 0.00 | 51 | 1012.3 |
| 20260507150555 | 55 | 248 | 1.0 | 7.0 | 0.00 | 0.00 | 0.00 | 50 | 1012.3 |
| 20260507150356 | 56 | 323 | 2.0 | 7.0 | 0.00 | 0.00 | 0.00 | 49 | 1012.3 |
| 20260507150257 | 56 | 192 | 1.0 | 7.0 | 0.00 | 0.00 | 0.00 | 49 | 1012.3 |
| 20260507150155 | 56 | 174 | 0.0 | 7.0 | 0.00 | 0.00 | 0.00 | 50 | 1012.4 |
| 20260507150057 | 56 | 316 | 1.0 | 7.0 | 0.00 | 0.00 | 0.00 | 48 | 1012.4 |
| 20260507145955 | 57 | 292 | 3.0 | 7.0 | 0.00 | 0.00 | 0.00 | 48 | 1012.3 |
| 20260507145854 | 57 | 313 | 2.0 | 7.0 | 0.00 | 0.00 | 0.00 | 46 | 1012.4 |
| 20260507145756 | 57 | 201 | 5.0 | 7.0 | 0.00 | 0.00 | 0.00 | 47 | 1012.3 |
| 20260507145655 | 57 | 246 | 2.0 | 7.0 | 0.00 | 0.00 | 0.00 | 47 | 1012.3 |
| 20260507145556 | 57 | 220 | 4.0 | 7.0 | 0.00 | 0.00 | 0.00 | 49 | 1012.3 |
| 20260507145455 | 57 | 174 | 5.0 | 7.0 | 0.00 | 0.00 | 0.00 | 46 | 1012.3 |
| 20260507145354 | 57 | 224 | 1.0 | 7.0 | 0.00 | 0.00 | 0.00 | 49 | 1012.3 |
| 20260507145155 | 57 | 178 | 1.0 | 7.0 | 0.00 | 0.00 | 0.00 | 53 | 1012.5 |
| 20260507145054 | 56 | 198 | 4.0 | 7.0 | 0.00 | 0.00 | 0.00 | 53 | 1012.5 |
| 20260507144954 | 56 | 269 | 3.0 | 7.0 | 0.00 | 0.00 | 0.00 | 52 | 1012.5 |
| 20260507144855 | 56 | 259 | 2.0 | 7.0 | 0.00 | 0.00 | 0.00 | 51 | 1012.5 |
| 20260507144655 | 56 | 321 | 3.0 | 7.0 | 0.00 | 0.00 | 0.00 | 51 | 1012.6 |
| 20260507144555 | 55 | 216 | 4.0 | 7.0 | 0.00 | 0.00 | 0.00 | 48 | 1012.6 |
| 20260507144456 | 55 | 207 | 2.0 | 7.0 | 0.00 | 0.00 | 0.00 | 50 | 1012.5 |
| 20260507144354 | 55 | 257 | 1.0 | 7.0 | 0.00 | 0.00 | 0.00 | 49 | 1012.5 |
| 20260507144255 | 56 | 266 | 2.0 | 6.0 | 0.00 | 0.00 | 0.00 | 51 | 1012.6 |
| 20260507144154 | 56 | 242 | 3.0 | 6.0 | 0.00 | 0.00 | 0.00 | 52 | 1012.6 |
| 20260507144054 | 56 | 238 | 2.0 | 6.0 | 0.00 | 0.00 | 0.00 | 52 | 1012.6 |
| 20260507143954 | 56 | 229 | 3.0 | 6.0 | 0.00 | 0.00 | 0.00 | 49 | 1012.7 |
| 20260507143855 | 56 | 262 | 2.0 | 6.0 | 0.00 | 0.00 | 0.00 | 49 | 1012.6 |
| 20260507143655 | 57 | 244 | 2.0 | 8.0 | 0.00 | 0.00 | 0.00 | 47 | 1012.7 |
| 20260507143555 | 56 | 270 | 4.0 | 8.0 | 0.00 | 0.00 | 0.00 | 52 | 1012.6 |
| 20260507143455 | 56 | 182 | 3.0 | 8.0 | 0.00 | 0.00 | 0.00 | 48 | 1012.6 |
| 20260507143355 | 56 | 213 | 3.0 | 9.0 | 0.00 | 0.00 | 0.00 | 50 | 1012.7 |
| 20260507143255 | 56 | 290 | 1.0 | 9.0 | 0.00 | 0.00 | 0.00 | 48 | 1012.7 |
| 20260507143156 | 56 | 311 | 1.0 | 9.0 | 0.00 | 0.00 | 0.00 | 49 | 1012.7 |
| 20260507143055 | 56 | 223 | 2.0 | 9.0 | 0.00 | 0.00 | 0.00 | 48 | 1012.6 |
| 20260507142955 | 56 | 266 | 3.0 | 9.0 | 0.00 | 0.00 | 0.00 | 49 | 1012.7 |
| 20260507142856 | 56 | 260 | 2.0 | 9.0 | 0.00 | 0.00 | 0.00 | 55 | 1012.7 |
| 20260507142755 | 55 | 240 | 1.0 | 9.0 | 0.00 | 0.00 | 0.00 | 51 | 1012.8 |
| 20260507142655 | 56 | 219 | 4.0 | 9.0 | 0.00 | 0.00 | 0.00 | 51 | 1012.7 |
| 20260507142555 | 56 | 215 | 1.0 | 9.0 | 0.00 | 0.00 | 0.00 | 52 | 1012.7 |
| 20260507142455 | 56 | 277 | 1.0 | 5.0 | 0.00 | 0.00 | 0.00 | 53 | 1012.7 |
| 20260507142354 | 56 | 248 | 2.0 | 5.0 | 0.00 | 0.00 | 0.00 | 57 | 1012.7 |
| 20260507142256 | 55 | 298 | 2.0 | 5.0 | 0.00 | 0.00 | 0.00 | 49 | 1012.7 |
| 20260507142154 | 56 | 317 | 5.0 | 7.0 | 0.00 | 0.00 | 0.00 | 51 | 1012.8 |
| 20260507141955 | 55 | 248 | 0.0 | 7.0 | 0.00 | 0.00 | 0.00 | 55 | 1012.8 |
| 20260507141855 | 55 | 166 | 3.0 | 7.0 | 0.00 | 0.00 | 0.00 | 52 | 1012.8 |
| 20260507141755 | 55 | 190 | 3.0 | 7.0 | 0.00 | 0.00 | 0.00 | 55 | 1012.9 |
| 20260507141655 | 55 | 221 | 1.0 | 7.0 | 0.00 | 0.00 | 0.00 | 52 | 1013.0 |
| 20260507141555 | 55 | 165 | 4.0 | 7.0 | 0.00 | 0.00 | 0.00 | 51 | 1013.0 |
| 20260507141455 | 55 | 136 | 3.0 | 7.0 | 0.00 | 0.00 | 0.00 | 54 | 1012.9 |
| 20260507141355 | 55 | 300 | 5.0 | 7.0 | 0.00 | 0.00 | 0.00 | 53 | 1012.8 |
| 20260507141255 | 55 | 203 | 6.0 | 7.0 | 0.00 | 0.00 | 0.00 | 58 | 1012.9 |
| 20260507141155 | 55 | 256 | 1.0 | 5.0 | 0.00 | 0.00 | 0.00 | 55 | 1013.0 |
| 20260507140854 | 55 | 322 | 2.0 | 5.0 | 0.00 | 0.00 | 0.00 | 53 | 1013.1 |
| 20260507140755 | 55 | 323 | 2.0 | 5.0 | 0.00 | 0.00 | 0.00 | 52 | 1013.1 |
| 20260507140654 | 55 | 227 | 2.0 | 5.0 | 0.00 | 0.00 | 0.00 | 53 | 1013.0 |
| 20260507140554 | 55 | 243 | 4.0 | 5.0 | 0.00 | 0.00 | 0.00 | 54 | 1013.1 |
| 20260507140355 | 55 | 267 | 1.0 | 4.0 | 0.00 | 0.00 | 0.00 | 57 | 1013.1 |
| 20260507140156 | 54 | 258 | 2.0 | 4.0 | 0.00 | 0.00 | 0.00 | 57 | 1013.2 |
| 20260507140056 | 54 | 355 | 2.0 | 4.0 | 0.00 | 0.00 | 0.00 | 55 | 1013.1 |
| 20260507135954 | 54 | 213 | 2.0 | 8.0 | 0.00 | 0.01 | 0.00 | 57 | 1013.2 |
| 20260507135855 | 54 | 190 | 3.0 | 8.0 | 0.00 | 0.01 | 0.00 | 53 | 1013.2 |
| 20260507135654 | 54 | 36 | 1.0 | 8.0 | 0.00 | 0.01 | 0.00 | 55 | 1013.3 |
| 20260507135556 | 54 | 268 | 2.0 | 8.0 | 0.00 | 0.01 | 0.00 | 54 | 1013.2 |
| 20260507135454 | 54 | 307 | 0.0 | 8.0 | 0.00 | 0.01 | 0.00 | 53 | 1013.3 |
| 20260507135356 | 54 | 157 | 1.0 | 8.0 | 0.00 | 0.01 | 0.00 | 53 | 1013.3 |
| 20260507135157 | 54 | 188 | 4.0 | 8.0 | 0.00 | 0.01 | 0.00 | 56 | 1013.3 |
| 20260507135055 | 54 | 196 | 1.0 | 3.0 | 0.00 | 0.01 | 0.00 | 60 | 1013.3 |
| 20260507134954 | 54 | 229 | 2.0 | 3.0 | 0.00 | 0.01 | 0.00 | 59 | 1013.3 |
| 20260507134856 | 54 | 290 | 1.0 | 3.0 | 0.00 | 0.01 | 0.00 | 58 | 1013.4 |
| 20260507134754 | 54 | 282 | 0.0 | 3.0 | 0.00 | 0.01 | 0.00 | 59 | 1013.3 |
| 20260507134655 | 54 | 57 | 0.0 | 3.0 | 0.00 | 0.01 | 0.00 | 59 | 1013.3 |
| 20260507134555 | 53 | 40 | 1.0 | 3.0 | 0.00 | 0.01 | 0.00 | 61 | 1013.4 |
| 20260507134355 | 53 | 138 | 0.0 | 3.0 | 0.00 | 0.01 | 0.00 | 57 | 1013.3 |
| 20260507134155 | 53 | 170 | 0.0 | 3.0 | 0.00 | 0.01 | 0.00 | 57 | 1013.4 |
| 20260507134055 | 54 | 173 | 1.0 | 3.0 | 0.00 | 0.01 | 0.00 | 60 | 1013.4 |
| 20260507133955 | 54 | 209 | 1.0 | 3.0 | 0.00 | 0.01 | 0.00 | 62 | 1013.4 |
| 20260507133855 | 54 | 236 | 2.0 | 3.0 | 0.00 | 0.01 | 0.00 | 64 | 1013.3 |
| 20260507133754 | 54 | 192 | 2.0 | 3.0 | 0.00 | 0.01 | 0.00 | 63 | 1013.3 |
| 20260507133654 | 53 | 207 | 0.0 | 3.0 | 0.00 | 0.01 | 0.00 | 62 | 1013.3 |
| 20260507133555 | 53 | 201 | 0.0 | 3.0 | 0.00 | 0.01 | 0.00 | 64 | 1013.3 |
| 20260507133455 | 53 | 201 | 0.0 | 3.0 | 0.00 | 0.01 | 0.00 | 63 | 1013.3 |
| 20260507133355 | 53 | 173 | 1.0 | 4.0 | 0.00 | 0.01 | 0.00 | 61 | 1013.4 |
| 20260507133254 | 53 | 98 | 1.0 | 4.0 | 0.00 | 0.01 | 0.00 | 60 | 1013.3 |
| 20260507133054 | 53 | 110 | 1.0 | 4.0 | 0.00 | 0.01 | 0.00 | 59 | 1013.4 |
| 20260507132955 | 52 | 134 | 1.0 | 4.0 | 0.00 | 0.01 | 0.00 | 60 | 1013.4 |
| 20260507132855 | 52 | 156 | 1.0 | 4.0 | 0.00 | 0.01 | 0.00 | 66 | 1013.4 |
| 20260507132755 | 52 | 165 | 1.0 | 5.0 | 0.00 | 0.01 | 0.00 | 68 | 1013.5 |
| 20260507132655 | 52 | 136 | 0.0 | 5.0 | 0.00 | 0.01 | 0.00 | 66 | 1013.5 |
| 20260507132554 | 52 | 207 | 2.0 | 5.0 | 0.00 | 0.01 | 0.00 | 65 | 1013.4 |
| 20260507132455 | 51 | 173 | 3.0 | 5.0 | 0.00 | 0.01 | 0.00 | 68 | 1013.5 |
| 20260507132255 | 51 | 200 | 1.0 | 5.0 | 0.00 | 0.01 | 0.00 | 66 | 1013.5 |
| 20260507132055 | 51 | 158 | 0.0 | 5.0 | 0.00 | 0.01 | 0.00 | 66 | 1013.5 |
| 20260507131954 | 51 | 175 | 2.0 | 5.0 | 0.00 | 0.01 | 0.00 | 66 | 1013.5 |
| 20260507131855 | 51 | 213 | 1.0 | 4.0 | 0.00 | 0.01 | 0.00 | 65 | 1013.6 |
| 20260507131654 | 51 | 203 | 2.0 | 4.0 | 0.00 | 0.01 | 0.00 | 67 | 1013.6 |
| 20260507131556 | 51 | 227 | 1.0 | 4.0 | 0.00 | 0.01 | 0.00 | 68 | 1013.6 |
| 20260507131254 | 51 | 99 | 1.0 | 4.0 | 0.00 | 0.01 | 0.00 | 70 | 1013.6 |
| 20260507131055 | 50 | 194 | 3.0 | 4.0 | 0.00 | 0.01 | 0.00 | 69 | 1013.7 |
| 20260507130954 | 50 | 119 | 1.0 | 4.0 | 0.00 | 0.01 | 0.00 | 69 | 1013.7 |
| 20260507130755 | 50 | 174 | 3.0 | 4.0 | 0.00 | 0.01 | 0.00 | 69 | 1013.7 |
| 20260507130655 | 50 | 159 | 1.0 | 3.0 | 0.00 | 0.01 | 0.00 | 72 | 1013.6 |
| 20260507130557 | 50 | 191 | 2.0 | 3.0 | 0.00 | 0.01 | 0.00 | 71 | 1013.7 |
| 20260507130454 | 50 | 143 | 0.0 | 3.0 | 0.00 | 0.01 | 0.00 | 71 | 1013.6 |
| 20260507130354 | 50 | 109 | 1.0 | 3.0 | 0.00 | 0.01 | 0.00 | 72 | 1013.6 |
| 20260507130255 | 50 | 138 | 0.0 | 3.0 | 0.00 | 0.01 | 0.00 | 72 | 1013.5 |
| 20260507130155 | 50 | 137 | 0.0 | 3.0 | 0.00 | 0.01 | 0.00 | 74 | 1013.6 |
| 20260507130054 | 50 | 267 | 0.0 | 3.0 | 0.00 | 0.01 | 0.00 | 75 | 1013.6 |
| 20260507125854 | 49 | 267 | 1.0 | 3.0 | 0.00 | 0.04 | 0.00 | 74 | 1013.6 |
| 20260507125754 | 49 | 167 | 3.0 | 3.0 | 0.00 | 0.04 | 0.00 | 74 | 1013.6 |
| 20260507125654 | 49 | 193 | 1.0 | 3.0 | 0.00 | 0.04 | 0.00 | 75 | 1013.6 |
| 20260507125555 | 49 | 210 | 2.0 | 3.0 | 0.00 | 0.04 | 0.00 | 75 | 1013.6 |
| 20260507125355 | 49 | 231 | 1.0 | 5.0 | 0.00 | 0.04 | 0.00 | 77 | 1013.7 |
| 20260507125255 | 48 | 225 | 0.0 | 5.0 | 0.00 | 0.04 | 0.00 | 76 | 1013.6 |
| 20260507125154 | 48 | 220 | 2.0 | 5.0 | 0.00 | 0.04 | 0.00 | 77 | 1013.6 |
| 20260507125055 | 48 | 198 | 2.0 | 5.0 | 0.00 | 0.04 | 0.00 | 76 | 1013.6 |
| 20260507124954 | 48 | 202 | 1.0 | 5.0 | 0.00 | 0.04 | 0.00 | 76 | 1013.6 |
| 20260507124755 | 48 | 207 | 3.0 | 5.0 | 0.00 | 0.04 | 0.00 | 77 | 1013.6 |
| 20260507124554 | 47 | 182 | 4.0 | 5.0 | 0.00 | 0.04 | 0.00 | 78 | 1013.6 |
| 20260507124454 | 47 | 182 | 2.0 | 3.0 | 0.00 | 0.04 | 0.00 | 78 | 1013.7 |
| 20260507124355 | 47 | 115 | 0.0 | 3.0 | 0.00 | 0.04 | 0.00 | 79 | 1013.7 |
| 20260507124254 | 47 | 115 | 0.0 | 3.0 | 0.00 | 0.04 | 0.00 | 81 | 1013.7 |
| 20260507124155 | 47 | 115 | 0.0 | 3.0 | 0.00 | 0.04 | 0.00 | 79 | 1013.7 |
| 20260507123855 | 46 | 171 | 2.0 | 2.0 | 0.00 | 0.04 | 0.00 | 83 | 1013.7 |
| 20260507123655 | 46 | 161 | 1.0 | 1.0 | 0.00 | 0.04 | 0.00 | 82 | 1013.6 |
| 20260507123255 | 45 | 161 | 0.0 | 1.0 | 0.00 | 0.04 | 0.00 | 83 | 1013.7 |
| 20260507123155 | 45 | 161 | 0.0 | 1.0 | 0.00 | 0.04 | 0.00 | 83 | 1013.7 |
| 20260507123054 | 45 | 161 | 1.0 | 2.0 | 0.00 | 0.04 | 0.00 | 84 | 1013.7 |
| 20260507122955 | 45 | 161 | 1.0 | 2.0 | 0.00 | 0.04 | 0.00 | 84 | 1013.7 |
| 20260507122854 | 45 | 161 | 0.0 | 2.0 | 0.00 | 0.04 | 0.00 | 84 | 1013.6 |
| 20260507122755 | 45 | 143 | 0.0 | 2.0 | 0.00 | 0.04 | 0.00 | 84 | 1013.7 |
| 20260507122656 | 44 | 140 | 1.0 | 2.0 | 0.00 | 0.04 | 0.00 | 85 | 1013.7 |
| 20260507122555 | 44 | 134 | 0.0 | 2.0 | 0.00 | 0.04 | 0.00 | 85 | 1013.7 |
| 20260507122455 | 44 | 134 | 0.0 | 2.0 | 0.00 | 0.04 | 0.00 | 85 | 1013.6 |
| 20260507122355 | 44 | 134 | 1.0 | 2.0 | 0.00 | 0.04 | 0.00 | 86 | 1013.8 |
| 20260507122254 | 44 | 111 | 1.0 | 2.0 | 0.00 | 0.04 | 0.00 | 86 | 1013.7 |
| 20260507122155 | 44 | 99 | 1.0 | 2.0 | 0.00 | 0.04 | 0.00 | 86 | 1013.7 |
| 20260507122054 | 44 | 82 | 0.0 | 2.0 | 0.00 | 0.04 | 0.00 | 86 | 1013.8 |
| 20260507121955 | 44 | 82 | 0.0 | 2.0 | 0.00 | 0.04 | 0.00 | 86 | 1013.7 |
| 20260507121854 | 44 | 82 | 0.0 | 2.0 | 0.00 | 0.04 | 0.00 | 86 | 1013.7 |
| 20260507121755 | 44 | 82 | 1.0 | 2.0 | 0.00 | 0.04 | 0.00 | 87 | 1013.8 |
| 20260507121656 | 43 | 82 | 1.0 | 2.0 | 0.00 | 0.04 | 0.00 | 87 | 1013.7 |
| 20260507121554 | 43 | 82 | 1.0 | 2.0 | 0.00 | 0.04 | 0.00 | 87 | 1013.7 |
| 20260507121456 | 43 | 82 | 0.0 | 1.0 | 0.00 | 0.04 | 0.00 | 87 | 1013.8 |
| 20260507121355 | 43 | 82 | 1.0 | 1.0 | 0.00 | 0.04 | 0.00 | 88 | 1013.7 |
| 20260507121254 | 43 | 82 | 1.0 | 1.0 | 0.00 | 0.04 | 0.00 | 89 | 1013.7 |
| 20260507121155 | 43 | 82 | 0.0 | 1.0 | 0.00 | 0.04 | 0.00 | 89 | 1013.7 |
| 20260507120954 | 43 | 82 | 1.0 | 1.0 | 0.00 | 0.04 | 0.00 | 89 | 1013.7 |
| 20260507120855 | 42 | 82 | 0.0 | 1.0 | 0.00 | 0.04 | 0.00 | 90 | 1013.7 |
| 20260507120755 | 42 | 82 | 0.0 | 2.0 | 0.00 | 0.04 | 0.00 | 90 | 1013.7 |
| 20260507120654 | 42 | 82 | 0.0 | 2.0 | 0.00 | 0.04 | 0.00 | 90 | 1013.7 |
| 20260507120555 | 42 | 82 | 0.0 | 2.0 | 0.00 | 0.04 | 0.00 | 90 | 1013.8 |
| 20260507120455 | 42 | 82 | 0.0 | 2.0 | 0.00 | 0.04 | 0.00 | 90 | 1013.7 |
| 20260507120355 | 42 | 82 | 1.0 | 2.0 | 0.00 | 0.04 | 0.00 | 91 | 1013.7 |
| 20260507120254 | 42 | 82 | 0.0 | 2.0 | 0.00 | 0.04 | 0.00 | 91 | 1013.6 |
| 20260507120155 | 42 | 82 | 1.0 | 2.0 | 0.00 | 0.04 | 0.00 | 91 | 1013.7 |
| 20260507120055 | 42 | 82 | 1.0 | 2.0 | 0.00 | 0.04 | 0.00 | 91 | 1013.8 |
| 20260507115956 | 41 | 82 | 1.0 | 2.0 | 0.00 | 0.07 | 0.00 | 91 | 1013.8 |
| 20260507115855 | 41 | 78 | 1.0 | 2.0 | 0.00 | 0.07 | 0.00 | 91 | 1013.8 |
| 20260507115755 | 41 | 38 | 0.0 | 1.0 | 0.00 | 0.07 | 0.00 | 91 | 1013.8 |
| 20260507115655 | 41 | 38 | 0.0 | 1.0 | 0.00 | 0.07 | 0.00 | 91 | 1013.7 |
| 20260507115554 | 41 | 38 | 1.0 | 1.0 | 0.00 | 0.07 | 0.00 | 91 | 1013.7 |
| 20260507115455 | 41 | 32 | 0.0 | 1.0 | 0.00 | 0.07 | 0.00 | 92 | 1013.7 |
| 20260507115356 | 41 | 32 | 1.0 | 1.0 | 0.00 | 0.07 | 0.00 | 91 | 1013.7 |
| 20260507115255 | 41 | 32 | 0.0 | 1.0 | 0.00 | 0.07 | 0.00 | 91 | 1013.7 |
| 20260507115154 | 41 | 32 | 1.0 | 1.0 | 0.00 | 0.07 | 0.00 | 92 | 1013.7 |
| 20260507115056 | 41 | 32 | 0.0 | 1.0 | 0.00 | 0.07 | 0.00 | 92 | 1013.7 |
| 20260507114854 | 40 | 12 | 0.0 | 1.0 | 0.00 | 0.07 | 0.00 | 92 | 1013.7 |
| 20260507114755 | 40 | 12 | 0.0 | 0.0 | 0.00 | 0.07 | 0.00 | 92 | 1013.7 |
| 20260507114654 | 40 | 12 | 0.0 | 0.0 | 0.00 | 0.07 | 0.00 | 92 | 1013.8 |
| 20260507114555 | 40 | 12 | 0.0 | 0.0 | 0.00 | 0.07 | 0.00 | 92 | 1013.7 |
| 20260507114455 | 40 | 12 | 0.0 | 0.0 | 0.00 | 0.07 | 0.00 | 93 | 1013.7 |
| 20260507114354 | 40 | 12 | 0.0 | 0.0 | 0.00 | 0.07 | 0.00 | 93 | 1013.7 |
| 20260507114255 | 40 | 12 | 0.0 | 0.0 | 0.00 | 0.07 | 0.00 | 93 | 1013.7 |
| 20260507114155 | 40 | 12 | 0.0 | 0.0 | 0.00 | 0.07 | 0.00 | 93 | 1013.7 |
| 20260507114054 | 40 | 12 | 0.0 | 0.0 | 0.00 | 0.07 | 0.00 | 93 | 1013.7 |
| 20260507113956 | 40 | 12 | 0.0 | 0.0 | 0.00 | 0.07 | 0.00 | 93 | 1013.7 |
| 20260507113855 | 40 | 12 | 0.0 | 0.0 | 0.00 | 0.07 | 0.00 | 93 | 1013.7 |
| 20260507113755 | 40 | 12 | 0.0 | 0.0 | 0.00 | 0.07 | 0.00 | 93 | 1013.6 |
| 20260507113656 | 39 | 12 | 0.0 | 1.0 | 0.00 | 0.07 | 0.00 | 93 | 1013.6 |
| 20260507113555 | 39 | 12 | 0.0 | 1.0 | 0.00 | 0.07 | 0.00 | 93 | 1013.7 |
| 20260507113454 | 39 | 12 | 0.0 | 1.0 | 0.00 | 0.07 | 0.00 | 93 | 1013.7 |
| 20260507113354 | 39 | 12 | 0.0 | 1.0 | 0.00 | 0.07 | 0.00 | 93 | 1013.7 |
| 20260507113255 | 39 | 12 | 0.0 | 1.0 | 0.00 | 0.07 | 0.00 | 93 | 1013.6 |
| 20260507113155 | 39 | 12 | 0.0 | 1.0 | 0.00 | 0.07 | 0.00 | 93 | 1013.6 |
| 20260507113055 | 39 | 12 | 0.0 | 1.0 | 0.00 | 0.07 | 0.00 | 93 | 1013.6 |
| 20260507112955 | 39 | 12 | 0.0 | 1.0 | 0.00 | 0.07 | 0.00 | 93 | 1013.6 |
| 20260507112854 | 39 | 12 | 1.0 | 1.0 | 0.00 | 0.07 | 0.00 | 93 | 1013.6 |
| 20260507112754 | 39 | 12 | 0.0 | 1.0 | 0.00 | 0.07 | 0.00 | 93 | 1013.5 |
| 20260507112655 | 39 | 12 | 0.0 | 0.0 | 0.00 | 0.07 | 0.00 | 93 | 1013.6 |
| 20260507112554 | 39 | 12 | 0.0 | 0.0 | 0.00 | 0.07 | 0.00 | 94 | 1013.5 |
| 20260507112455 | 39 | 12 | 0.0 | 0.0 | 0.00 | 0.07 | 0.00 | 94 | 1013.5 |
| 20260507112354 | 38 | 12 | 0.0 | 0.0 | 0.00 | 0.07 | 0.00 | 94 | 1013.5 |
| 20260507112255 | 38 | 12 | 0.0 | 0.0 | 0.00 | 0.07 | 0.00 | 93 | 1013.5 |
| 20260507112054 | 38 | 12 | 0.0 | 0.0 | 0.00 | 0.07 | 0.00 | 94 | 1013.4 |
| 20260507111955 | 38 | 12 | 0.0 | 0.0 | 0.00 | 0.07 | 0.00 | 94 | 1013.4 |
| 20260507111855 | 38 | 12 | 0.0 | 0.0 | 0.00 | 0.07 | 0.00 | 94 | 1013.3 |
| 20260507111755 | 38 | 12 | 0.0 | 0.0 | 0.00 | 0.07 | 0.00 | 94 | 1013.3 |
| 20260507111654 | 38 | 12 | 0.0 | 0.0 | 0.00 | 0.07 | 0.00 | 94 | 1013.4 |
| 20260507111556 | 38 | 12 | 0.0 | 0.0 | 0.00 | 0.07 | 0.00 | 94 | 1013.4 |
| 20260507111455 | 38 | 12 | 0.0 | 0.0 | 0.00 | 0.07 | 0.00 | 94 | 1013.3 |
| 20260507111256 | 38 | 12 | 0.0 | 0.0 | 0.00 | 0.07 | 0.00 | 94 | 1013.4 |
| 20260507111155 | 38 | 12 | 0.0 | 0.0 | 0.00 | 0.07 | 0.00 | 94 | 1013.4 |
| 20260507111055 | 38 | 12 | 0.0 | 0.0 | 0.00 | 0.07 | 0.00 | 94 | 1013.4 |
| 20260507110955 | 38 | 12 | 0.0 | 0.0 | 0.00 | 0.07 | 0.00 | 94 | 1013.5 |
| 20260507110755 | 38 | 12 | 0.0 | 0.0 | 0.00 | 0.07 | 0.00 | 94 | 1013.5 |
| 20260507110656 | 38 | 12 | 0.0 | 0.0 | 0.00 | 0.07 | 0.00 | 94 | 1013.5 |
| 20260507110554 | 38 | 12 | 0.0 | 0.0 | 0.00 | 0.07 | 0.00 | 94 | 1013.5 |
| 20260507110454 | 38 | 12 | 0.0 | 0.0 | 0.00 | 0.07 | 0.00 | 94 | 1013.5 |
| 20260507110354 | 38 | 12 | 0.0 | 0.0 | 0.00 | 0.07 | 0.00 | 94 | 1013.4 |
| 20260507110255 | 38 | 12 | 0.0 | 0.0 | 0.00 | 0.07 | 0.00 | 94 | 1013.4 |
| 20260507110155 | 37 | 12 | 0.0 | 0.0 | 0.00 | 0.07 | 0.00 | 94 | 1013.5 |
| 20260507110056 | 37 | 12 | 0.0 | 0.0 | 0.00 | 0.07 | 0.00 | 94 | 1013.5 |
| 20260507105856 | 37 | 12 | 0.0 | 0.0 | 0.00 | 0.16 | 0.00 | 94 | 1013.5 |
| 20260507105655 | 37 | 12 | 0.0 | 0.0 | 0.00 | 0.16 | 0.00 | 94 | 1013.5 |
| 20260507105555 | 37 | 12 | 0.0 | 0.0 | 0.00 | 0.16 | 0.00 | 94 | 1013.5 |
| 20260507105456 | 37 | 12 | 0.0 | 0.0 | 0.00 | 0.16 | 0.00 | 94 | 1013.4 |
| 20260507105355 | 37 | 12 | 0.0 | 0.0 | 0.00 | 0.16 | 0.00 | 94 | 1013.3 |
| 20260507105155 | 37 | 12 | 0.0 | 0.0 | 0.00 | 0.16 | 0.00 | 94 | 1013.3 |
| 20260507105055 | 37 | 12 | 0.0 | 0.0 | 0.00 | 0.16 | 0.00 | 94 | 1013.3 |
| 20260507104954 | 37 | 12 | 0.0 | 0.0 | 0.00 | 0.16 | 0.00 | 94 | 1013.3 |
| 20260507104855 | 37 | 12 | 0.0 | 0.0 | 0.00 | 0.16 | 0.00 | 94 | 1013.4 |
| 20260507104755 | 37 | 12 | 0.0 | 0.0 | 0.00 | 0.16 | 0.00 | 94 | 1013.3 |
| 20260507104655 | 37 | 12 | 0.0 | 0.0 | 0.00 | 0.16 | 0.00 | 94 | 1013.3 |
| 20260507104556 | 37 | 12 | 0.0 | 0.0 | 0.00 | 0.16 | 0.00 | 94 | 1013.2 |
| 20260507104454 | 37 | 12 | 0.0 | 0.0 | 0.00 | 0.16 | 0.00 | 94 | 1013.2 |
| 20260507104355 | 37 | 12 | 0.0 | 0.0 | 0.00 | 0.16 | 0.00 | 94 | 1013.2 |
| 20260507104055 | 36 | 12 | 0.0 | 0.0 | 0.00 | 0.16 | 0.00 | 94 | 1013.1 |
| 20260507103955 | 36 | 12 | 0.0 | 0.0 | 0.00 | 0.16 | 0.00 | 94 | 1013.1 |
| 20260507103855 | 36 | 12 | 0.0 | 0.0 | 0.00 | 0.16 | 0.00 | 94 | 1013.2 |
| 20260507103654 | 36 | 12 | 0.0 | 0.0 | 0.00 | 0.16 | 0.00 | 94 | 1013.1 |
| 20260507103555 | 36 | 12 | 0.0 | 0.0 | 0.00 | 0.16 | 0.00 | 94 | 1013.1 |
| 20260507103455 | 36 | 12 | 0.0 | 0.0 | 0.00 | 0.16 | 0.00 | 94 | 1013.0 |
| 20260507103355 | 36 | 12 | 0.0 | 0.0 | 0.00 | 0.16 | 0.00 | 94 | 1013.1 |
| 20260507103256 | 36 | 12 | 0.0 | 0.0 | 0.00 | 0.16 | 0.00 | 94 | 1013.0 |
| 20260507103154 | 36 | 12 | 0.0 | 0.0 | 0.00 | 0.16 | 0.00 | 94 | 1013.0 |
| 20260507103055 | 36 | 12 | 0.0 | 0.0 | 0.00 | 0.16 | 0.00 | 94 | 1013.0 |
| 20260507102954 | 36 | 12 | 0.0 | 0.0 | 0.00 | 0.16 | 0.00 | 94 | 1013.0 |
| 20260507102854 | 36 | 12 | 0.0 | 0.0 | 0.00 | 0.16 | 0.00 | 94 | 1012.9 |
| 20260507102756 | 36 | 12 | 0.0 | 0.0 | 0.00 | 0.16 | 0.00 | 94 | 1013.0 |
| 20260507102655 | 36 | 12 | 0.0 | 0.0 | 0.00 | 0.16 | 0.00 | 94 | 1013.0 |
| 20260507102555 | 36 | 12 | 0.0 | 0.0 | 0.00 | 0.16 | 0.00 | 94 | 1013.0 |
| 20260507102355 | 36 | 12 | 0.0 | 0.0 | 0.00 | 0.16 | 0.00 | 94 | 1013.0 |
| 20260507102255 | 36 | 12 | 0.0 | 0.0 | 0.00 | 0.16 | 0.00 | 94 | 1013.0 |
| 20260507102155 | 36 | 12 | 0.0 | 0.0 | 0.00 | 0.16 | 0.00 | 94 | 1012.9 |
| 20260507102054 | 36 | 12 | 0.0 | 0.0 | 0.00 | 0.16 | 0.00 | 94 | 1013.0 |
| 20260507101954 | 36 | 12 | 0.0 | 0.0 | 0.00 | 0.16 | 0.00 | 94 | 1012.9 |
| 20260507101856 | 36 | 12 | 0.0 | 0.0 | 0.00 | 0.16 | 0.00 | 94 | 1013.0 |
| 20260507101754 | 36 | 12 | 0.0 | 0.0 | 0.00 | 0.16 | 0.00 | 94 | 1013.1 |
| 20260507101556 | 36 | 12 | 0.0 | 0.0 | 0.00 | 0.16 | 0.00 | 94 | 1013.1 |
| 20260507101455 | 36 | 12 | 0.0 | 0.0 | 0.00 | 0.16 | 0.00 | 94 | 1013.1 |
| 20260507101354 | 36 | 12 | 0.0 | 0.0 | 0.00 | 0.16 | 0.00 | 94 | 1013.0 |
| 20260507101255 | 36 | 12 | 0.0 | 0.0 | 0.00 | 0.16 | 0.00 | 94 | 1013.1 |
| 20260507101155 | 36 | 12 | 0.0 | 0.0 | 0.00 | 0.16 | 0.00 | 94 | 1013.0 |
| 20260507101055 | 36 | 12 | 0.0 | 0.0 | 0.00 | 0.16 | 0.00 | 94 | 1013.0 |
| 20260507100954 | 36 | 12 | 0.0 | 0.0 | 0.00 | 0.16 | 0.00 | 94 | 1013.1 |
| 20260507100855 | 36 | 12 | 0.0 | 0.0 | 0.00 | 0.16 | 0.00 | 94 | 1013.0 |
| 20260507100755 | 36 | 12 | 0.0 | 0.0 | 0.00 | 0.16 | 0.00 | 94 | 1013.0 |
| 20260507100655 | 37 | 12 | 0.0 | 0.0 | 0.00 | 0.16 | 0.00 | 94 | 1013.0 |
| 20260507100454 | 36 | 12 | 0.0 | 0.0 | 0.00 | 0.16 | 0.00 | 93 | 1013.0 |
| 20260507100254 | 36 | 12 | 0.0 | 0.0 | 0.00 | 0.16 | 0.00 | 93 | 1013.0 |
| 20260507100054 | 37 | 12 | 0.0 | 0.0 | 0.00 | 0.16 | 0.00 | 93 | 1012.9 |
| 20260507095955 | 37 | 12 | 0.0 | 0.0 | 0.00 | 0.25 | 0.00 | 93 | 1012.9 |
| 20260507095856 | 37 | 12 | 0.0 | 0.0 | 0.00 | 0.25 | 0.00 | 94 | 1013.0 |
| 20260507095755 | 37 | 12 | 0.0 | 0.0 | 0.00 | 0.25 | 0.00 | 93 | 1012.9 |
| 20260507095655 | 37 | 12 | 0.0 | 0.0 | 0.00 | 0.25 | 0.00 | 93 | 1012.9 |
| 20260507095555 | 37 | 12 | 0.0 | 0.0 | 0.00 | 0.25 | 0.00 | 93 | 1013.0 |
| 20260507095455 | 37 | 12 | 0.0 | 0.0 | 0.00 | 0.25 | 0.00 | 93 | 1012.9 |
| 20260507095355 | 37 | 12 | 0.0 | 0.0 | 0.00 | 0.25 | 0.00 | 93 | 1012.9 |
| 20260507095155 | 37 | 12 | 0.0 | 0.0 | 0.00 | 0.25 | 0.00 | 93 | 1012.9 |
| 20260507095055 | 37 | 12 | 0.0 | 0.0 | 0.00 | 0.25 | 0.00 | 93 | 1012.9 |
| 20260507094955 | 37 | 12 | 0.0 | 0.0 | 0.00 | 0.25 | 0.00 | 93 | 1012.9 |
| 20260507094855 | 37 | 12 | 0.0 | 0.0 | 0.00 | 0.25 | 0.00 | 93 | 1012.9 |
| 20260507094754 | 37 | 12 | 0.0 | 0.0 | 0.00 | 0.25 | 0.00 | 93 | 1012.9 |
| 20260507094655 | 37 | 12 | 0.0 | 0.0 | 0.00 | 0.25 | 0.00 | 93 | 1012.9 |
| 20260507094453 | 37 | 12 | 0.0 | 0.0 | 0.00 | 0.25 | 0.00 | 93 | 1012.8 |
| 20260507094356 | 37 | 12 | 0.0 | 0.0 | 0.00 | 0.25 | 0.00 | 93 | 1012.8 |
| 20260507094055 | 37 | 12 | 0.0 | 0.0 | 0.00 | 0.25 | 0.00 | 93 | 1012.8 |
| 20260507093755 | 37 | 12 | 0.0 | 0.0 | 0.00 | 0.25 | 0.00 | 93 | 1012.8 |
| 20260507093655 | 37 | 12 | 0.0 | 0.0 | 0.00 | 0.25 | 0.00 | 93 | 1012.8 |
| 20260507093555 | 37 | 12 | 0.0 | 0.0 | 0.00 | 0.25 | 0.00 | 93 | 1012.8 |
| 20260507093355 | 37 | 12 | 0.0 | 0.0 | 0.00 | 0.25 | 0.00 | 93 | 1012.9 |
| 20260507093255 | 37 | 12 | 0.0 | 0.0 | 0.00 | 0.25 | 0.00 | 93 | 1012.9 |
| 20260507093154 | 37 | 12 | 0.0 | 0.0 | 0.00 | 0.25 | 0.00 | 93 | 1012.8 |
| 20260507093055 | 38 | 12 | 0.0 | 0.0 | 0.00 | 0.25 | 0.00 | 93 | 1012.8 |
| 20260507092855 | 38 | 12 | 0.0 | 0.0 | 0.00 | 0.25 | 0.00 | 93 | 1013.0 |
| 20260507092755 | 38 | 12 | 0.0 | 0.0 | 0.00 | 0.25 | 0.00 | 93 | 1012.9 |
| 20260507092654 | 38 | 12 | 0.0 | 0.0 | 0.00 | 0.25 | 0.00 | 93 | 1012.9 |
| 20260507092554 | 38 | 12 | 0.0 | 0.0 | 0.00 | 0.25 | 0.00 | 93 | 1013.0 |
| 20260507092455 | 38 | 12 | 0.0 | 0.0 | 0.00 | 0.25 | 0.00 | 93 | 1012.9 |
| 20260507092354 | 37 | 12 | 0.0 | 0.0 | 0.00 | 0.25 | 0.00 | 93 | 1013.0 |
| 20260507092255 | 37 | 12 | 0.0 | 0.0 | 0.00 | 0.25 | 0.00 | 93 | 1013.0 |
| 20260507092154 | 37 | 12 | 0.0 | 0.0 | 0.00 | 0.25 | 0.00 | 93 | 1012.9 |
| 20260507092055 | 37 | 12 | 0.0 | 0.0 | 0.00 | 0.25 | 0.00 | 93 | 1013.0 |
| 20260507091954 | 37 | 12 | 0.0 | 0.0 | 0.00 | 0.25 | 0.00 | 93 | 1013.0 |
| 20260507091854 | 37 | 12 | 0.0 | 0.0 | 0.00 | 0.25 | 0.00 | 93 | 1013.0 |
| 20260507091755 | 37 | 12 | 0.0 | 0.0 | 0.00 | 0.25 | 0.00 | 93 | 1013.1 |
| 20260507091555 | 37 | 12 | 0.0 | 0.0 | 0.00 | 0.25 | 0.00 | 93 | 1013.1 |
| 20260507091455 | 37 | 12 | 0.0 | 0.0 | 0.00 | 0.25 | 0.00 | 93 | 1013.1 |
| 20260507091356 | 37 | 12 | 0.0 | 0.0 | 0.00 | 0.25 | 0.00 | 93 | 1013.1 |
| 20260507091254 | 38 | 12 | 0.0 | 0.0 | 0.00 | 0.25 | 0.00 | 93 | 1013.0 |
| 20260507091155 | 37 | 12 | 0.0 | 0.0 | 0.00 | 0.25 | 0.00 | 93 | 1013.0 |
| 20260507091055 | 37 | 12 | 0.0 | 0.0 | 0.00 | 0.25 | 0.00 | 92 | 1013.1 |
| 20260507090956 | 37 | 12 | 0.0 | 0.0 | 0.00 | 0.25 | 0.00 | 93 | 1013.1 |
| 20260507090755 | 37 | 12 | 0.0 | 0.0 | 0.00 | 0.25 | 0.00 | 92 | 1013.2 |
| 20260507090654 | 37 | 12 | 0.0 | 0.0 | 0.00 | 0.25 | 0.00 | 92 | 1013.1 |
| 20260507090555 | 38 | 12 | 0.0 | 0.0 | 0.00 | 0.25 | 0.00 | 92 | 1013.0 |
| 20260507090455 | 38 | 12 | 0.0 | 0.0 | 0.00 | 0.25 | 0.00 | 92 | 1013.0 |
| 20260507090355 | 38 | 12 | 0.0 | 0.0 | 0.00 | 0.25 | 0.00 | 92 | 1013.1 |
| 20260507090254 | 38 | 12 | 0.0 | 0.0 | 0.00 | 0.25 | 0.00 | 92 | 1013.1 |
| 20260507090155 | 38 | 12 | 0.0 | 0.0 | 0.00 | 0.25 | 0.00 | 92 | 1013.0 |
| 20260507090054 | 38 | 12 | 0.0 | 0.0 | 0.00 | 0.25 | 0.00 | 92 | 1013.1 |
| 20260507085855 | 38 | 12 | 0.0 | 0.0 | 0.00 | 0.35 | 0.00 | 92 | 1013.0 |
| 20260507085754 | 38 | 12 | 0.0 | 0.0 | 0.00 | 0.35 | 0.00 | 92 | 1013.1 |
| 20260507085554 | 38 | 12 | 0.0 | 0.0 | 0.00 | 0.35 | 0.00 | 92 | 1013.1 |
| 20260507085455 | 38 | 12 | 0.0 | 0.0 | 0.00 | 0.35 | 0.00 | 92 | 1013.0 |
| 20260507085255 | 38 | 12 | 0.0 | 0.0 | 0.00 | 0.35 | 0.00 | 92 | 1013.0 |
| 20260507085155 | 38 | 12 | 0.0 | 0.0 | 0.00 | 0.35 | 0.00 | 92 | 1013.1 |
| 20260507084955 | 38 | 12 | 0.0 | 0.0 | 0.00 | 0.35 | 0.00 | 92 | 1013.0 |
| 20260507084856 | 38 | 12 | 0.0 | 0.0 | 0.00 | 0.35 | 0.00 | 92 | 1013.0 |
| 20260507084753 | 38 | 12 | 0.0 | 0.0 | 0.00 | 0.35 | 0.00 | 92 | 1013.0 |
| 20260507084654 | 38 | 12 | 0.0 | 0.0 | 0.00 | 0.35 | 0.00 | 92 | 1013.0 |
| 20260507084554 | 38 | 12 | 0.0 | 0.0 | 0.00 | 0.35 | 0.00 | 92 | 1013.0 |
| 20260507084455 | 38 | 12 | 0.0 | 0.0 | 0.00 | 0.35 | 0.00 | 92 | 1013.0 |
| 20260507084355 | 38 | 12 | 0.0 | 0.0 | 0.00 | 0.35 | 0.00 | 92 | 1013.1 |
| 20260507084055 | 38 | 12 | 0.0 | 0.0 | 0.00 | 0.35 | 0.00 | 92 | 1013.0 |
| 20260507083955 | 38 | 12 | 0.0 | 0.0 | 0.00 | 0.35 | 0.00 | 92 | 1013.1 |
| 20260507083854 | 38 | 12 | 0.0 | 0.0 | 0.00 | 0.35 | 0.00 | 92 | 1013.1 |
| 20260507083754 | 38 | 12 | 0.0 | 0.0 | 0.00 | 0.35 | 0.00 | 92 | 1013.0 |
| 20260507083654 | 38 | 12 | 0.0 | 0.0 | 0.00 | 0.35 | 0.00 | 92 | 1013.0 |
| 20260507083554 | 38 | 12 | 0.0 | 0.0 | 0.00 | 0.35 | 0.00 | 91 | 1013.0 |
| 20260507083454 | 38 | 12 | 0.0 | 0.0 | 0.00 | 0.35 | 0.00 | 91 | 1013.0 |
| 20260507083254 | 39 | 12 | 0.0 | 0.0 | 0.00 | 0.35 | 0.00 | 91 | 1013.0 |
| 20260507083154 | 39 | 12 | 0.0 | 0.0 | 0.00 | 0.35 | 0.00 | 91 | 1013.0 |
| 20260507083054 | 39 | 12 | 0.0 | 0.0 | 0.00 | 0.35 | 0.00 | 92 | 1013.1 |
| 20260507082955 | 39 | 12 | 0.0 | 0.0 | 0.00 | 0.35 | 0.00 | 92 | 1013.0 |
| 20260507082854 | 39 | 12 | 0.0 | 0.0 | 0.00 | 0.35 | 0.00 | 92 | 1013.0 |
| 20260507082654 | 39 | 12 | 0.0 | 0.0 | 0.00 | 0.35 | 0.00 | 91 | 1013.0 |
| 20260507082556 | 39 | 12 | 0.0 | 0.0 | 0.00 | 0.35 | 0.00 | 91 | 1013.0 |
| 20260507082455 | 39 | 12 | 0.0 | 0.0 | 0.00 | 0.35 | 0.00 | 91 | 1013.0 |
| 20260507082356 | 39 | 12 | 0.0 | 0.0 | 0.00 | 0.35 | 0.00 | 91 | 1013.0 |
| 20260507082254 | 39 | 12 | 0.0 | 0.0 | 0.00 | 0.35 | 0.00 | 91 | 1013.0 |
| 20260507082154 | 39 | 12 | 0.0 | 0.0 | 0.00 | 0.35 | 0.00 | 91 | 1013.0 |
| 20260507082054 | 39 | 12 | 0.0 | 0.0 | 0.00 | 0.35 | 0.00 | 91 | 1013.0 |
| 20260507081956 | 39 | 12 | 0.0 | 0.0 | 0.00 | 0.35 | 0.00 | 91 | 1013.0 |
| 20260507081854 | 39 | 12 | 0.0 | 0.0 | 0.00 | 0.35 | 0.00 | 91 | 1012.9 |
| 20260507081754 | 39 | 12 | 0.0 | 0.0 | 0.00 | 0.35 | 0.00 | 91 | 1013.0 |
| 20260507081654 | 39 | 12 | 0.0 | 0.0 | 0.00 | 0.35 | 0.00 | 91 | 1012.9 |
| 20260507081554 | 39 | 12 | 0.0 | 0.0 | 0.00 | 0.35 | 0.00 | 91 | 1013.0 |
| 20260507081454 | 39 | 12 | 0.0 | 0.0 | 0.00 | 0.35 | 0.00 | 91 | 1012.9 |
| 20260507081354 | 39 | 12 | 0.0 | 0.0 | 0.00 | 0.35 | 0.00 | 91 | 1013.0 |
| 20260507081155 | 39 | 12 | 0.0 | 0.0 | 0.00 | 0.35 | 0.00 | 91 | 1012.9 |
| 20260507081055 | 39 | 12 | 0.0 | 0.0 | 0.00 | 0.35 | 0.00 | 91 | 1012.9 |
| 20260507080956 | 39 | 12 | 0.0 | 0.0 | 0.00 | 0.35 | 0.00 | 91 | 1013.0 |
| 20260507080855 | 39 | 12 | 0.0 | 0.0 | 0.00 | 0.35 | 0.00 | 91 | 1012.9 |
| 20260507080656 | 39 | 12 | 0.0 | 0.0 | 0.00 | 0.35 | 0.00 | 91 | 1012.9 |
| 20260507080555 | 39 | 12 | 0.0 | 0.0 | 0.00 | 0.35 | 0.00 | 90 | 1013.0 |
| 20260507080355 | 40 | 12 | 0.0 | 0.0 | 0.00 | 0.35 | 0.00 | 91 | 1012.9 |
| 20260507080255 | 40 | 12 | 0.0 | 0.0 | 0.00 | 0.35 | 0.00 | 91 | 1013.0 |
| 20260507080155 | 40 | 12 | 0.0 | 0.0 | 0.00 | 0.35 | 0.00 | 91 | 1012.9 |
| 20260507080054 | 40 | 12 | 0.0 | 0.0 | 0.00 | 0.35 | 0.00 | 91 | 1013.0 |
| 20260507075957 | 40 | 12 | 0.0 | 0.0 | 0.00 | 0.35 | 0.00 | 91 | 1013.0 |
| 20260507075755 | 40 | 12 | 0.0 | 0.0 | 0.00 | 0.36 | 0.00 | 90 | 1012.9 |
| 20260507075655 | 40 | 12 | 0.0 | 0.0 | 0.00 | 0.36 | 0.00 | 90 | 1013.0 |
| 20260507075554 | 40 | 12 | 0.0 | 0.0 | 0.00 | 0.36 | 0.00 | 90 | 1013.1 |
| 20260507075456 | 40 | 12 | 0.0 | 0.0 | 0.00 | 0.36 | 0.00 | 90 | 1013.0 |
| 20260507075254 | 40 | 12 | 0.0 | 0.0 | 0.00 | 0.36 | 0.00 | 90 | 1013.1 |
| 20260507075155 | 40 | 12 | 0.0 | 0.0 | 0.00 | 0.36 | 0.00 | 90 | 1013.0 |
| 20260507075054 | 40 | 12 | 0.0 | 0.0 | 0.00 | 0.36 | 0.00 | 90 | 1013.0 |
| 20260507074955 | 40 | 12 | 0.0 | 0.0 | 0.00 | 0.36 | 0.00 | 90 | 1013.0 |
| 20260507074854 | 40 | 12 | 0.0 | 0.0 | 0.00 | 0.36 | 0.00 | 89 | 1013.0 |
| 20260507074754 | 40 | 12 | 0.0 | 0.0 | 0.00 | 0.36 | 0.00 | 89 | 1013.0 |
| 20260507074554 | 40 | 12 | 0.0 | 0.0 | 0.00 | 0.36 | 0.00 | 89 | 1013.0 |
| 20260507074454 | 40 | 12 | 0.0 | 0.0 | 0.00 | 0.36 | 0.00 | 89 | 1012.9 |
| 20260507074356 | 40 | 12 | 0.0 | 0.0 | 0.00 | 0.36 | 0.00 | 89 | 1013.0 |
| 20260507074255 | 40 | 12 | 0.0 | 0.0 | 0.00 | 0.36 | 0.00 | 89 | 1013.0 |
| 20260507074155 | 40 | 12 | 0.0 | 0.0 | 0.00 | 0.36 | 0.00 | 89 | 1013.0 |
| 20260507074055 | 40 | 12 | 0.0 | 0.0 | 0.00 | 0.36 | 0.00 | 88 | 1012.9 |
| 20260507073855 | 41 | 12 | 0.0 | 0.0 | 0.00 | 0.36 | 0.00 | 89 | 1013.1 |
| 20260507073755 | 41 | 12 | 0.0 | 0.0 | 0.00 | 0.36 | 0.00 | 88 | 1013.1 |
| 20260507073654 | 41 | 12 | 0.0 | 0.0 | 0.00 | 0.36 | 0.00 | 88 | 1013.0 |
| 20260507073554 | 41 | 12 | 0.0 | 1.0 | 0.00 | 0.36 | 0.00 | 88 | 1013.1 |
| 20260507073454 | 41 | 12 | 0.0 | 1.0 | 0.00 | 0.36 | 0.00 | 88 | 1013.0 |
| 20260507073355 | 41 | 12 | 0.0 | 1.0 | 0.00 | 0.36 | 0.00 | 88 | 1013.1 |
| 20260507073154 | 41 | 12 | 0.0 | 1.0 | 0.00 | 0.36 | 0.00 | 88 | 1013.0 |
| 20260507073055 | 41 | 12 | 0.0 | 1.0 | 0.00 | 0.36 | 0.00 | 87 | 1013.0 |
| 20260507072955 | 41 | 12 | 0.0 | 1.0 | 0.00 | 0.36 | 0.00 | 88 | 1013.0 |
| 20260507072854 | 41 | 12 | 0.0 | 1.0 | 0.00 | 0.36 | 0.00 | 88 | 1013.1 |
| 20260507072755 | 41 | 12 | 0.0 | 1.0 | 0.00 | 0.36 | 0.00 | 87 | 1013.0 |
| 20260507072654 | 41 | 12 | 0.0 | 1.0 | 0.00 | 0.36 | 0.00 | 87 | 1013.0 |
| 20260507072456 | 41 | 12 | 0.0 | 0.0 | 0.00 | 0.36 | 0.00 | 87 | 1013.0 |
| 20260507072256 | 41 | 12 | 0.0 | 0.0 | 0.00 | 0.36 | 0.00 | 87 | 1013.0 |
| 20260507072154 | 41 | 12 | 0.0 | 0.0 | 0.00 | 0.36 | 0.00 | 87 | 1013.0 |
| 20260507071855 | 41 | 12 | 0.0 | 0.0 | 0.00 | 0.36 | 0.00 | 86 | 1013.1 |
| 20260507071654 | 42 | 12 | 0.0 | 0.0 | 0.00 | 0.36 | 0.00 | 86 | 1013.0 |
| 20260507071553 | 42 | 12 | 0.0 | 0.0 | 0.00 | 0.36 | 0.00 | 86 | 1013.1 |
| 20260507071455 | 42 | 12 | 0.0 | 0.0 | 0.00 | 0.36 | 0.00 | 85 | 1013.1 |
| 20260507071354 | 42 | 12 | 0.0 | 0.0 | 0.00 | 0.36 | 0.00 | 85 | 1013.1 |
| 20260507071256 | 42 | 12 | 0.0 | 0.0 | 0.00 | 0.36 | 0.00 | 85 | 1013.0 |
| 20260507071154 | 42 | 12 | 0.0 | 0.0 | 0.00 | 0.36 | 0.00 | 85 | 1013.1 |
| 20260507071054 | 42 | 12 | 0.0 | 0.0 | 0.00 | 0.36 | 0.00 | 85 | 1013.1 |
| 20260507070955 | 42 | 12 | 0.0 | 0.0 | 0.00 | 0.36 | 0.00 | 85 | 1013.1 |
| 20260507070755 | 42 | 12 | 0.0 | 0.0 | 0.00 | 0.36 | 0.00 | 84 | 1013.1 |
| 20260507070655 | 42 | 12 | 0.0 | 0.0 | 0.00 | 0.36 | 0.00 | 85 | 1013.1 |
| 20260507070555 | 42 | 12 | 0.0 | 0.0 | 0.00 | 0.36 | 0.00 | 85 | 1013.1 |
| 20260507070454 | 42 | 12 | 0.0 | 0.0 | 0.00 | 0.36 | 0.00 | 85 | 1013.1 |
| 20260507070354 | 42 | 12 | 0.0 | 0.0 | 0.00 | 0.36 | 0.00 | 84 | 1013.0 |
| 20260507070253 | 42 | 12 | 0.0 | 0.0 | 0.00 | 0.36 | 0.00 | 84 | 1013.0 |
| 20260507070155 | 42 | 12 | 0.0 | 0.0 | 0.00 | 0.36 | 0.00 | 84 | 1013.1 |
| 20260507070055 | 42 | 12 | 0.0 | 0.0 | 0.00 | 0.36 | 0.00 | 83 | 1013.0 |
| 20260507065957 | 42 | 12 | 0.0 | 0.0 | 0.00 | 0.36 | 0.00 | 84 | 1013.0 |
| 20260507065754 | 42 | 12 | 0.0 | 0.0 | 0.00 | 0.40 | 0.00 | 84 | 1013.1 |
| 20260507065654 | 43 | 12 | 0.0 | 0.0 | 0.00 | 0.40 | 0.00 | 84 | 1013.1 |
| 20260507065556 | 43 | 12 | 0.0 | 1.0 | 0.00 | 0.40 | 0.00 | 84 | 1013.2 |
| 20260507065455 | 43 | 12 | 0.0 | 1.0 | 0.00 | 0.40 | 0.00 | 84 | 1013.2 |
| 20260507065354 | 43 | 12 | 0.0 | 1.0 | 0.00 | 0.40 | 0.00 | 84 | 1013.2 |
| 20260507065154 | 43 | 12 | 0.0 | 1.0 | 0.00 | 0.40 | 0.00 | 83 | 1013.3 |
| 20260507065055 | 43 | 12 | 0.0 | 1.0 | 0.00 | 0.40 | 0.00 | 83 | 1013.1 |
| 20260507064954 | 43 | 12 | 0.0 | 1.0 | 0.00 | 0.40 | 0.00 | 82 | 1013.2 |
| 20260507064855 | 43 | 12 | 0.0 | 1.0 | 0.00 | 0.40 | 0.00 | 82 | 1013.2 |
| 20260507064755 | 44 | 12 | 0.0 | 1.0 | 0.00 | 0.40 | 0.00 | 82 | 1013.2 |
| 20260507064654 | 44 | 12 | 0.0 | 1.0 | 0.00 | 0.40 | 0.00 | 82 | 1013.2 |
| 20260507064554 | 44 | 12 | 1.0 | 1.0 | 0.00 | 0.40 | 0.00 | 82 | 1013.1 |
| 20260507064455 | 44 | 12 | 0.0 | 1.0 | 0.00 | 0.40 | 0.00 | 82 | 1013.2 |
| 20260507064354 | 44 | 12 | 1.0 | 2.0 | 0.00 | 0.40 | 0.00 | 82 | 1013.2 |
| 20260507064054 | 44 | 12 | 0.0 | 2.0 | 0.00 | 0.40 | 0.00 | 82 | 1013.2 |
| 20260507063956 | 44 | 12 | 0.0 | 2.0 | 0.00 | 0.40 | 0.00 | 81 | 1013.2 |
| 20260507063754 | 44 | 12 | 1.0 | 2.0 | 0.00 | 0.40 | 0.00 | 81 | 1013.2 |
| 20260507063655 | 44 | 12 | 0.0 | 2.0 | 0.00 | 0.40 | 0.00 | 81 | 1013.1 |
| 20260507063556 | 44 | 12 | 1.0 | 2.0 | 0.00 | 0.40 | 0.00 | 81 | 1013.1 |
| 20260507063455 | 44 | 12 | 1.0 | 2.0 | 0.00 | 0.40 | 0.00 | 81 | 1013.1 |
| 20260507063354 | 44 | 12 | 1.0 | 1.0 | 0.00 | 0.40 | 0.00 | 81 | 1013.1 |
| 20260507063255 | 44 | 12 | 0.0 | 1.0 | 0.00 | 0.40 | 0.00 | 80 | 1013.1 |
| 20260507063154 | 44 | 12 | 0.0 | 1.0 | 0.00 | 0.40 | 0.00 | 80 | 1013.1 |
| 20260507063054 | 45 | 12 | 1.0 | 1.0 | 0.00 | 0.40 | 0.00 | 80 | 1013.1 |
| 20260507062955 | 45 | 12 | 0.0 | 1.0 | 0.00 | 0.40 | 0.00 | 80 | 1013.1 |
| 20260507062755 | 45 | 12 | 1.0 | 1.0 | 0.00 | 0.40 | 0.00 | 79 | 1013.1 |
| 20260507062554 | 45 | 12 | 0.0 | 1.0 | 0.00 | 0.40 | 0.00 | 79 | 1013.1 |
| 20260507062455 | 45 | 12 | 0.0 | 1.0 | 0.00 | 0.40 | 0.00 | 79 | 1013.1 |
| 20260507062354 | 45 | 12 | 1.0 | 1.0 | 0.00 | 0.40 | 0.00 | 79 | 1013.1 |
| 20260507062255 | 45 | 12 | 1.0 | 1.0 | 0.00 | 0.40 | 0.00 | 79 | 1013.1 |
| 20260507061954 | 46 | 12 | 0.0 | 0.0 | 0.00 | 0.40 | 0.00 | 78 | 1013.2 |
| 20260507061855 | 46 | 12 | 0.0 | 0.0 | 0.00 | 0.40 | 0.00 | 78 | 1013.1 |
| 20260507061754 | 46 | 12 | 0.0 | 0.0 | 0.00 | 0.40 | 0.00 | 78 | 1013.1 |
| 20260507061455 | 46 | 12 | 0.0 | 0.0 | 0.00 | 0.40 | 0.00 | 79 | 1013.1 |
| 20260507061255 | 46 | 12 | 0.0 | 0.0 | 0.00 | 0.40 | 0.00 | 79 | 1013.1 |
| 20260507061154 | 46 | 12 | 0.0 | 0.0 | 0.00 | 0.40 | 0.00 | 77 | 1013.1 |
| 20260507060755 | 46 | 12 | 0.0 | 0.0 | 0.00 | 0.40 | 0.00 | 79 | 1013.2 |
| 20260507060656 | 46 | 12 | 0.0 | 0.0 | 0.00 | 0.40 | 0.00 | 77 | 1013.2 |
| 20260507060557 | 46 | 12 | 0.0 | 0.0 | 0.00 | 0.40 | 0.00 | 77 | 1013.2 |
| 20260507060355 | 46 | 12 | 0.0 | 0.0 | 0.00 | 0.40 | 0.00 | 79 | 1013.2 |
| 20260507060255 | 46 | 12 | 0.0 | 0.0 | 0.00 | 0.40 | 0.00 | 79 | 1013.3 |
| 20260507060055 | 46 | 12 | 0.0 | 0.0 | 0.00 | 0.40 | 0.00 | 79 | 1013.3 |
| 20260507055954 | 46 | 12 | 0.0 | 0.0 | 0.00 | 0.43 | 0.00 | 78 | 1013.2 |
| 20260507055853 | 46 | 12 | 0.0 | 0.0 | 0.00 | 0.43 | 0.00 | 78 | 1013.3 |
| 20260507055754 | 46 | 12 | 0.0 | 0.0 | 0.00 | 0.43 | 0.00 | 78 | 1013.3 |
| 20260507055653 | 46 | 12 | 0.0 | 0.0 | 0.00 | 0.43 | 0.00 | 78 | 1013.2 |
| 20260507055554 | 46 | 12 | 0.0 | 0.0 | 0.00 | 0.43 | 0.00 | 78 | 1013.2 |
| 20260507055453 | 46 | 12 | 0.0 | 0.0 | 0.00 | 0.43 | 0.00 | 78 | 1013.3 |
| 20260507055354 | 46 | 12 | 0.0 | 0.0 | 0.00 | 0.43 | 0.00 | 78 | 1013.3 |
| 20260507055254 | 46 | 12 | 0.0 | 0.0 | 0.00 | 0.43 | 0.00 | 79 | 1013.4 |
| 20260507055154 | 46 | 12 | 0.0 | 0.0 | 0.00 | 0.43 | 0.00 | 79 | 1013.3 |
| 20260507055055 | 47 | 12 | 0.0 | 0.0 | 0.00 | 0.43 | 0.00 | 80 | 1013.4 |
| 20260507054953 | 47 | 12 | 0.0 | 0.0 | 0.00 | 0.43 | 0.00 | 79 | 1013.4 |
| 20260507054854 | 47 | 12 | 0.0 | 0.0 | 0.00 | 0.43 | 0.00 | 79 | 1013.4 |
| 20260507054754 | 47 | 12 | 0.0 | 0.0 | 0.00 | 0.43 | 0.00 | 79 | 1013.4 |
| 20260507054654 | 47 | 12 | 0.0 | 0.0 | 0.00 | 0.43 | 0.00 | 79 | 1013.5 |
| 20260507054555 | 47 | 12 | 0.0 | 0.0 | 0.00 | 0.43 | 0.00 | 78 | 1013.5 |
| 20260507054454 | 47 | 12 | 0.0 | 0.0 | 0.00 | 0.43 | 0.00 | 78 | 1013.5 |
| 20260507054354 | 47 | 12 | 0.0 | 0.0 | 0.00 | 0.43 | 0.00 | 80 | 1013.5 |
| 20260507054254 | 47 | 12 | 0.0 | 0.0 | 0.00 | 0.43 | 0.00 | 79 | 1013.5 |
| 20260507054155 | 47 | 12 | 0.0 | 0.0 | 0.00 | 0.43 | 0.00 | 79 | 1013.6 |
| 20260507053854 | 47 | 12 | 0.0 | 0.0 | 0.00 | 0.43 | 0.00 | 77 | 1013.5 |
| 20260507053554 | 47 | 12 | 0.0 | 0.0 | 0.00 | 0.43 | 0.00 | 77 | 1013.5 |
| 20260507053454 | 47 | 12 | 0.0 | 0.0 | 0.00 | 0.43 | 0.00 | 76 | 1013.6 |
| 20260507053354 | 47 | 12 | 0.0 | 0.0 | 0.00 | 0.43 | 0.00 | 76 | 1013.6 |
| 20260507053255 | 47 | 12 | 0.0 | 0.0 | 0.00 | 0.43 | 0.00 | 75 | 1013.7 |
| 20260507053055 | 47 | 12 | 0.0 | 0.0 | 0.00 | 0.43 | 0.00 | 76 | 1013.7 |
| 20260507052954 | 47 | 12 | 0.0 | 0.0 | 0.00 | 0.43 | 0.00 | 75 | 1013.7 |
| 20260507052854 | 47 | 12 | 0.0 | 0.0 | 0.00 | 0.43 | 0.00 | 77 | 1013.8 |
| 20260507052755 | 47 | 12 | 0.0 | 0.0 | 0.00 | 0.43 | 0.00 | 77 | 1013.8 |
| 20260507052554 | 47 | 12 | 0.0 | 0.0 | 0.00 | 0.43 | 0.00 | 77 | 1013.9 |
| 20260507052455 | 47 | 12 | 0.0 | 0.0 | 0.00 | 0.43 | 0.00 | 78 | 1013.9 |
| 20260507052353 | 47 | 12 | 0.0 | 0.0 | 0.00 | 0.43 | 0.00 | 78 | 1013.9 |
| 20260507052254 | 47 | 12 | 0.0 | 0.0 | 0.00 | 0.43 | 0.00 | 79 | 1013.9 |
| 20260507052154 | 47 | 12 | 0.0 | 0.0 | 0.00 | 0.43 | 0.00 | 78 | 1013.8 |
| 20260507052054 | 47 | 12 | 0.0 | 0.0 | 0.00 | 0.43 | 0.00 | 78 | 1013.9 |
| 20260507051954 | 47 | 12 | 0.0 | 0.0 | 0.00 | 0.43 | 0.00 | 78 | 1013.8 |
| 20260507051754 | 47 | 12 | 0.0 | 0.0 | 0.00 | 0.43 | 0.00 | 77 | 1013.9 |
| 20260507051654 | 47 | 12 | 0.0 | 0.0 | 0.00 | 0.43 | 0.00 | 78 | 1013.8 |
| 20260507051454 | 47 | 12 | 0.0 | 0.0 | 0.00 | 0.43 | 0.00 | 78 | 1013.9 |
| 20260507051354 | 47 | 12 | 0.0 | 0.0 | 0.00 | 0.43 | 0.00 | 78 | 1013.9 |
| 20260507051154 | 47 | 12 | 0.0 | 0.0 | 0.00 | 0.43 | 0.00 | 78 | 1013.9 |
| 20260507050954 | 47 | 12 | 0.0 | 0.0 | 0.00 | 0.43 | 0.00 | 77 | 1013.8 |
| 20260507050854 | 47 | 12 | 0.0 | 0.0 | 0.00 | 0.43 | 0.00 | 77 | 1013.9 |
| 20260507050754 | 47 | 12 | 0.0 | 0.0 | 0.00 | 0.43 | 0.00 | 76 | 1013.8 |
| 20260507050654 | 47 | 12 | 0.0 | 0.0 | 0.00 | 0.43 | 0.00 | 76 | 1013.8 |
| 20260507050554 | 47 | 12 | 0.0 | 0.0 | 0.00 | 0.43 | 0.00 | 76 | 1013.9 |
| 20260507050453 | 47 | 12 | 0.0 | 0.0 | 0.00 | 0.43 | 0.00 | 76 | 1013.9 |
| 20260507050355 | 47 | 12 | 0.0 | 0.0 | 0.00 | 0.43 | 0.00 | 76 | 1013.9 |
| 20260507050155 | 47 | 12 | 0.0 | 0.0 | 0.00 | 0.43 | 0.00 | 77 | 1013.9 |
| 20260507050054 | 47 | 12 | 0.0 | 0.0 | 0.00 | 0.43 | 0.00 | 78 | 1013.9 |
| 20260507045957 | 47 | 12 | 0.0 | 0.0 | 0.00 | 0.43 | 0.00 | 78 | 1013.9 |
| 20260507045856 | 47 | 12 | 0.0 | 0.0 | 0.00 | 0.44 | 0.00 | 78 | 1013.9 |
| 20260507045656 | 47 | 12 | 0.0 | 0.0 | 0.00 | 0.44 | 0.00 | 78 | 1013.9 |
| 20260507045456 | 47 | 12 | 0.0 | 0.0 | 0.00 | 0.44 | 0.00 | 78 | 1013.9 |
| 20260507045357 | 47 | 12 | 0.0 | 0.0 | 0.00 | 0.44 | 0.00 | 79 | 1013.9 |
| 20260507045256 | 47 | 12 | 0.0 | 0.0 | 0.00 | 0.44 | 0.00 | 78 | 1014.0 |
| 20260507045156 | 47 | 12 | 0.0 | 1.0 | 0.00 | 0.44 | 0.00 | 78 | 1013.9 |
| 20260507045057 | 47 | 12 | 0.0 | 1.0 | 0.00 | 0.44 | 0.00 | 78 | 1013.9 |
| 20260507044956 | 47 | 12 | 0.0 | 1.0 | 0.00 | 0.44 | 0.00 | 78 | 1013.8 |
| 20260507044857 | 47 | 12 | 0.0 | 1.0 | 0.00 | 0.44 | 0.00 | 77 | 1013.8 |
| 20260507044655 | 47 | 12 | 0.0 | 1.0 | 0.00 | 0.44 | 0.00 | 78 | 1013.8 |
| 20260507044556 | 47 | 12 | 0.0 | 1.0 | 0.00 | 0.44 | 0.00 | 78 | 1013.8 |
| 20260507044456 | 47 | 12 | 0.0 | 1.0 | 0.00 | 0.44 | 0.00 | 77 | 1013.8 |
| 20260507044357 | 47 | 12 | 0.0 | 1.0 | 0.00 | 0.44 | 0.00 | 78 | 1013.8 |
| 20260507044256 | 48 | 12 | 0.0 | 0.0 | 0.00 | 0.44 | 0.00 | 77 | 1013.8 |
| 20260507044056 | 48 | 12 | 0.0 | 0.0 | 0.00 | 0.44 | 0.00 | 77 | 1013.8 |
| 20260507043956 | 48 | 12 | 0.0 | 0.0 | 0.00 | 0.44 | 0.00 | 77 | 1013.8 |
| 20260507043856 | 48 | 12 | 0.0 | 0.0 | 0.00 | 0.44 | 0.00 | 77 | 1013.7 |
| 20260507043757 | 48 | 12 | 0.0 | 0.0 | 0.00 | 0.44 | 0.00 | 77 | 1013.7 |
| 20260507043656 | 48 | 12 | 0.0 | 0.0 | 0.00 | 0.44 | 0.00 | 77 | 1013.7 |
| 20260507043556 | 48 | 12 | 0.0 | 0.0 | 0.00 | 0.44 | 0.00 | 77 | 1013.7 |
| 20260507043456 | 48 | 12 | 0.0 | 0.0 | 0.00 | 0.44 | 0.00 | 78 | 1013.7 |
| 20260507043357 | 48 | 12 | 0.0 | 0.0 | 0.00 | 0.44 | 0.00 | 77 | 1013.7 |
| 20260507043256 | 48 | 12 | 0.0 | 0.0 | 0.00 | 0.44 | 0.00 | 77 | 1013.7 |
| 20260507043156 | 48 | 12 | 0.0 | 0.0 | 0.00 | 0.44 | 0.00 | 77 | 1013.7 |
| 20260507043057 | 48 | 12 | 0.0 | 0.0 | 0.00 | 0.44 | 0.00 | 77 | 1013.7 |
| 20260507042955 | 48 | 12 | 0.0 | 0.0 | 0.00 | 0.44 | 0.00 | 76 | 1013.8 |
| 20260507042855 | 48 | 12 | 0.0 | 1.0 | 0.00 | 0.44 | 0.00 | 76 | 1013.8 |
| 20260507042756 | 48 | 12 | 0.0 | 1.0 | 0.00 | 0.44 | 0.00 | 76 | 1013.7 |
| 20260507042656 | 48 | 12 | 0.0 | 1.0 | 0.00 | 0.44 | 0.00 | 75 | 1013.8 |
| 20260507042556 | 48 | 12 | 0.0 | 1.0 | 0.00 | 0.44 | 0.00 | 75 | 1013.8 |
| 20260507042456 | 48 | 12 | 0.0 | 1.0 | 0.00 | 0.44 | 0.00 | 77 | 1013.8 |
| 20260507042357 | 48 | 12 | 0.0 | 1.0 | 0.00 | 0.44 | 0.00 | 78 | 1013.8 |
| 20260507042256 | 48 | 12 | 0.0 | 1.0 | 0.00 | 0.44 | 0.00 | 78 | 1013.8 |
| 20260507042157 | 48 | 12 | 0.0 | 2.0 | 0.00 | 0.44 | 0.00 | 77 | 1013.8 |
| 20260507042056 | 48 | 12 | 0.0 | 2.0 | 0.00 | 0.44 | 0.00 | 77 | 1013.9 |
| 20260507041956 | 48 | 12 | 0.0 | 2.0 | 0.00 | 0.44 | 0.00 | 77 | 1013.9 |
| 20260507041856 | 48 | 12 | 0.0 | 2.0 | 0.00 | 0.44 | 0.00 | 76 | 1013.9 |
| 20260507041655 | 48 | 12 | 0.0 | 2.0 | 0.00 | 0.44 | 0.00 | 76 | 1013.8 |
| 20260507041456 | 48 | 12 | 0.0 | 2.0 | 0.00 | 0.44 | 0.00 | 74 | 1013.8 |
| 20260507041356 | 48 | 12 | 1.0 | 2.0 | 0.00 | 0.44 | 0.00 | 74 | 1013.7 |
| 20260507040855 | 48 | 12 | 0.0 | 1.0 | 0.00 | 0.44 | 0.00 | 75 | 1013.7 |
| 20260507040755 | 48 | 12 | 0.0 | 1.0 | 0.00 | 0.44 | 0.00 | 74 | 1013.7 |
| 20260507040657 | 48 | 12 | 0.0 | 1.0 | 0.00 | 0.44 | 0.00 | 75 | 1013.7 |
| 20260507040556 | 48 | 12 | 0.0 | 1.0 | 0.00 | 0.44 | 0.00 | 75 | 1013.8 |
| 20260507040357 | 48 | 12 | 0.0 | 1.0 | 0.00 | 0.44 | 0.00 | 75 | 1013.7 |
| 20260507040257 | 48 | 12 | 0.0 | 1.0 | 0.00 | 0.44 | 0.00 | 76 | 1013.8 |
| 20260507040156 | 48 | 12 | 0.0 | 1.0 | 0.00 | 0.44 | 0.00 | 76 | 1013.8 |
| 20260507040057 | 48 | 12 | 0.0 | 1.0 | 0.00 | 0.44 | 0.00 | 76 | 1013.7 |
| 20260507035857 | 48 | 12 | 1.0 | 1.0 | 0.00 | 0.44 | 0.44 | 76 | 1013.7 |
| 20260507035757 | 48 | 12 | 0.0 | 0.0 | 0.00 | 0.44 | 0.44 | 75 | 1013.8 |
| 20260507035657 | 48 | 12 | 0.0 | 0.0 | 0.00 | 0.44 | 0.44 | 75 | 1013.8 |
| 20260507035556 | 48 | 12 | 0.0 | 0.0 | 0.00 | 0.44 | 0.44 | 76 | 1013.8 |
| 20260507035456 | 48 | 12 | 0.0 | 1.0 | 0.00 | 0.44 | 0.44 | 74 | 1013.8 |
| 20260507035357 | 48 | 12 | 0.0 | 1.0 | 0.00 | 0.44 | 0.44 | 74 | 1013.7 |
| 20260507035257 | 49 | 12 | 0.0 | 1.0 | 0.00 | 0.44 | 0.44 | 73 | 1013.7 |
| 20260507035157 | 49 | 12 | 0.0 | 2.0 | 0.00 | 0.44 | 0.44 | 72 | 1013.6 |
| 20260507035058 | 49 | 12 | 0.0 | 2.0 | 0.00 | 0.44 | 0.44 | 73 | 1013.6 |
| 20260507034957 | 49 | 12 | 0.0 | 2.0 | 0.00 | 0.44 | 0.44 | 73 | 1013.6 |
| 20260507034856 | 49 | 12 | 0.0 | 2.0 | 0.00 | 0.44 | 0.44 | 73 | 1013.6 |
| 20260507034757 | 49 | 12 | 0.0 | 2.0 | 0.00 | 0.44 | 0.44 | 71 | 1013.6 |
| 20260507034656 | 49 | 12 | 1.0 | 2.0 | 0.00 | 0.44 | 0.44 | 70 | 1013.5 |
| 20260507034457 | 49 | 12 | 0.0 | 2.0 | 0.00 | 0.44 | 0.44 | 72 | 1013.5 |
| 20260507034357 | 49 | 12 | 0.0 | 2.0 | 0.00 | 0.44 | 0.44 | 70 | 1013.5 |
| 20260507034257 | 49 | 12 | 1.0 | 2.0 | 0.00 | 0.44 | 0.44 | 72 | 1013.5 |
| 20260507034157 | 49 | 12 | 0.0 | 1.0 | 0.00 | 0.44 | 0.44 | 72 | 1013.5 |
| 20260507034058 | 49 | 12 | 1.0 | 1.0 | 0.00 | 0.44 | 0.44 | 70 | 1013.5 |
| 20260507033756 | 49 | 12 | 0.0 | 1.0 | 0.00 | 0.44 | 0.44 | 70 | 1013.6 |
| 20260507033656 | 49 | 12 | 0.0 | 1.0 | 0.00 | 0.44 | 0.44 | 68 | 1013.6 |
| 20260507033557 | 49 | 12 | 1.0 | 1.0 | 0.00 | 0.44 | 0.44 | 69 | 1013.7 |
| 20260507033357 | 49 | 12 | 0.0 | 3.0 | 0.00 | 0.44 | 0.44 | 70 | 1013.7 |
| 20260507033256 | 49 | 12 | 0.0 | 3.0 | 0.00 | 0.44 | 0.44 | 71 | 1013.7 |
| 20260507033158 | 49 | 12 | 0.0 | 3.0 | 0.00 | 0.44 | 0.44 | 68 | 1013.7 |
| 20260507033056 | 49 | 12 | 0.0 | 3.0 | 0.00 | 0.44 | 0.44 | 70 | 1013.6 |
| 20260507032957 | 49 | 12 | 0.0 | 3.0 | 0.00 | 0.44 | 0.44 | 70 | 1013.5 |
| 20260507032858 | 49 | 12 | 0.0 | 3.0 | 0.00 | 0.44 | 0.44 | 68 | 1013.6 |
| 20260507032758 | 49 | 12 | 0.0 | 3.0 | 0.00 | 0.44 | 0.44 | 69 | 1013.5 |
| 20260507032658 | 49 | 12 | 0.0 | 3.0 | 0.00 | 0.44 | 0.44 | 68 | 1013.7 |
| 20260507032457 | 49 | 5 | 0.0 | 3.0 | 0.00 | 0.44 | 0.44 | 65 | 1013.6 |
| 20260507032157 | 49 | 24 | 0.0 | 3.0 | 0.00 | 0.44 | 0.44 | 64 | 1013.4 |
| 20260507032056 | 49 | 23 | 1.0 | 3.0 | 0.00 | 0.44 | 0.44 | 65 | 1013.3 |
| 20260507031957 | 49 | 22 | 0.0 | 3.0 | 0.00 | 0.44 | 0.44 | 67 | 1013.3 |
| 20260507031857 | 49 | 22 | 1.0 | 3.0 | 0.00 | 0.44 | 0.44 | 67 | 1013.3 |
| 20260507031757 | 49 | 23 | 2.0 | 2.0 | 0.00 | 0.44 | 0.44 | 71 | 1013.3 |
| 20260507031657 | 49 | 5 | 0.0 | 1.0 | 0.00 | 0.44 | 0.44 | 71 | 1013.4 |
| 20260507031558 | 49 | 5 | 1.0 | 1.0 | 0.00 | 0.44 | 0.44 | 71 | 1013.4 |
| 20260507031457 | 49 | 5 | 0.0 | 1.0 | 0.00 | 0.44 | 0.44 | 68 | 1013.4 |
| 20260507031357 | 49 | 5 | 0.0 | 1.0 | 0.00 | 0.44 | 0.44 | 69 | 1013.3 |
| 20260507031256 | 49 | 5 | 1.0 | 1.0 | 0.00 | 0.44 | 0.44 | 66 | 1013.3 |
| 20260507031057 | 49 | 5 | 0.0 | 1.0 | 0.00 | 0.44 | 0.44 | 69 | 1013.3 |
| 20260507030957 | 49 | 5 | 0.0 | 2.0 | 0.00 | 0.44 | 0.44 | 69 | 1013.2 |
| 20260507030857 | 49 | 5 | 0.0 | 2.0 | 0.00 | 0.44 | 0.44 | 70 | 1013.3 |
| 20260507030756 | 49 | 5 | 0.0 | 2.0 | 0.00 | 0.44 | 0.44 | 68 | 1013.2 |
| 20260507030656 | 49 | 5 | 0.0 | 2.0 | 0.00 | 0.44 | 0.44 | 68 | 1013.2 |
| 20260507030556 | 49 | 5 | 0.0 | 2.0 | 0.00 | 0.44 | 0.44 | 68 | 1013.2 |
| 20260507030457 | 49 | 5 | 0.0 | 2.0 | 0.00 | 0.44 | 0.44 | 69 | 1013.1 |
| 20260507030357 | 49 | 5 | 0.0 | 2.0 | 0.00 | 0.44 | 0.44 | 71 | 1013.1 |
| 20260507030257 | 49 | 5 | 0.0 | 2.0 | 0.00 | 0.44 | 0.44 | 70 | 1013.2 |
| 20260507030156 | 49 | 5 | 0.0 | 2.0 | 0.00 | 0.44 | 0.44 | 68 | 1013.3 |
| 20260507030057 | 49 | 5 | 2.0 | 2.0 | 0.00 | 0.44 | 0.44 | 69 | 1013.2 |
| 20260507025858 | 49 | 355 | 0.0 | 2.0 | 0.00 | 0.44 | 0.44 | 74 | 1013.1 |
| 20260507025757 | 49 | 355 | 0.0 | 2.0 | 0.00 | 0.44 | 0.44 | 74 | 1013.1 |
| 20260507025656 | 49 | 355 | 0.0 | 2.0 | 0.00 | 0.44 | 0.44 | 71 | 1013.1 |
| 20260507025558 | 49 | 360 | 1.0 | 1.0 | 0.00 | 0.44 | 0.44 | 74 | 1013.1 |
| 20260507025357 | 49 | 360 | 0.0 | 1.0 | 0.00 | 0.44 | 0.44 | 76 | 1013.2 |
| 20260507025158 | 49 | 360 | 0.0 | 1.0 | 0.00 | 0.44 | 0.44 | 76 | 1013.1 |
| 20260507025057 | 49 | 360 | 0.0 | 1.0 | 0.00 | 0.44 | 0.44 | 75 | 1013.0 |
| 20260507024957 | 49 | 360 | 0.0 | 1.0 | 0.00 | 0.44 | 0.44 | 74 | 1013.0 |
| 20260507024857 | 49 | 360 | 0.0 | 1.0 | 0.00 | 0.44 | 0.44 | 75 | 1013.1 |
| 20260507024656 | 49 | 360 | 0.0 | 1.0 | 0.00 | 0.44 | 0.44 | 75 | 1013.2 |
| 20260507024559 | 50 | 360 | 0.0 | 1.0 | 0.00 | 0.44 | 0.44 | 75 | 1013.2 |
| 20260507024458 | 50 | 360 | 1.0 | 1.0 | 0.00 | 0.44 | 0.44 | 74 | 1013.2 |
| 20260507024357 | 50 | 360 | 0.0 | 1.0 | 0.00 | 0.44 | 0.44 | 74 | 1013.2 |
| 20260507024257 | 50 | 360 | 0.0 | 1.0 | 0.00 | 0.44 | 0.44 | 74 | 1013.2 |
| 20260507024157 | 50 | 360 | 0.0 | 1.0 | 0.00 | 0.44 | 0.44 | 75 | 1013.2 |
| 20260507024056 | 50 | 360 | 0.0 | 1.0 | 0.00 | 0.44 | 0.44 | 74 | 1013.1 |
| 20260507023958 | 50 | 360 | 0.0 | 1.0 | 0.00 | 0.44 | 0.44 | 74 | 1013.1 |
| 20260507023858 | 50 | 360 | 0.0 | 2.0 | 0.00 | 0.44 | 0.44 | 72 | 1013.0 |
| 20260507023756 | 50 | 360 | 0.0 | 4.0 | 0.00 | 0.44 | 0.44 | 72 | 1013.0 |
| 20260507023657 | 50 | 360 | 0.0 | 5.0 | 0.00 | 0.44 | 0.44 | 70 | 1013.0 |
| 20260507023557 | 50 | 360 | 0.0 | 5.0 | 0.00 | 0.44 | 0.44 | 69 | 1013.1 |
| 20260507023457 | 50 | 360 | 0.0 | 5.0 | 0.00 | 0.44 | 0.44 | 69 | 1013.0 |
| 20260507023356 | 50 | 360 | 1.0 | 5.0 | 0.00 | 0.44 | 0.44 | 67 | 1013.0 |
| 20260507023258 | 50 | 360 | 0.0 | 5.0 | 0.00 | 0.44 | 0.44 | 68 | 1013.0 |
| 20260507023157 | 50 | 360 | 0.0 | 5.0 | 0.00 | 0.44 | 0.44 | 67 | 1012.9 |
| 20260507023056 | 50 | 360 | 1.0 | 5.0 | 0.00 | 0.44 | 0.44 | 67 | 1012.9 |
| 20260507022957 | 49 | 32 | 0.0 | 5.0 | 0.00 | 0.44 | 0.44 | 67 | 1013.0 |
| 20260507022857 | 49 | 11 | 2.0 | 5.0 | 0.00 | 0.44 | 0.44 | 72 | 1013.0 |
| 20260507022656 | 50 | 251 | 0.0 | 1.0 | 0.00 | 0.44 | 0.44 | 76 | 1013.0 |
| 20260507022457 | 50 | 251 | 0.0 | 1.0 | 0.00 | 0.44 | 0.44 | 74 | 1013.1 |
| 20260507022356 | 50 | 251 | 1.0 | 1.0 | 0.00 | 0.44 | 0.44 | 74 | 1013.0 |
| 20260507022157 | 50 | 251 | 0.0 | 2.0 | 0.00 | 0.44 | 0.44 | 75 | 1013.2 |
| 20260507022058 | 50 | 251 | 0.0 | 2.0 | 0.00 | 0.44 | 0.44 | 74 | 1013.1 |
| 20260507021856 | 50 | 251 | 0.0 | 2.0 | 0.00 | 0.44 | 0.44 | 73 | 1012.9 |
| 20260507021756 | 50 | 251 | 1.0 | 2.0 | 0.00 | 0.44 | 0.44 | 74 | 1012.9 |
| 20260507021658 | 50 | 251 | 0.0 | 2.0 | 0.00 | 0.44 | 0.44 | 74 | 1012.9 |
| 20260507021558 | 50 | 251 | 0.0 | 2.0 | 0.00 | 0.44 | 0.44 | 73 | 1012.8 |
| 20260507021457 | 50 | 251 | 0.0 | 2.0 | 0.00 | 0.44 | 0.44 | 72 | 1012.8 |
| 20260507021257 | 50 | 9 | 0.0 | 1.0 | 0.00 | 0.44 | 0.44 | 72 | 1012.7 |
| 20260507021158 | 50 | 9 | 0.0 | 1.0 | 0.00 | 0.44 | 0.44 | 72 | 1012.7 |
| 20260507020958 | 50 | 9 | 1.0 | 1.0 | 0.00 | 0.44 | 0.44 | 71 | 1012.8 |
| 20260507020858 | 50 | 9 | 0.0 | 1.0 | 0.00 | 0.44 | 0.44 | 71 | 1012.8 |
| 20260507020758 | 50 | 9 | 0.0 | 1.0 | 0.00 | 0.44 | 0.44 | 69 | 1012.7 |
| 20260507020657 | 50 | 9 | 0.0 | 1.0 | 0.00 | 0.44 | 0.44 | 70 | 1012.7 |
| 20260507020557 | 50 | 9 | 1.0 | 1.0 | 0.00 | 0.44 | 0.44 | 70 | 1012.7 |
| 20260507020457 | 50 | 9 | 0.0 | 1.0 | 0.00 | 0.44 | 0.44 | 70 | 1012.7 |
| 20260507020356 | 50 | 9 | 0.0 | 1.0 | 0.00 | 0.44 | 0.44 | 75 | 1012.6 |
| 20260507020257 | 50 | 9 | 0.0 | 1.0 | 0.00 | 0.44 | 0.44 | 76 | 1012.7 |
| 20260507020157 | 50 | 9 | 0.0 | 1.0 | 0.00 | 0.44 | 0.44 | 75 | 1012.7 |
| 20260507020057 | 50 | 9 | 0.0 | 1.0 | 0.00 | 0.44 | 0.44 | 75 | 1012.7 |
| 20260507015956 | 50 | 9 | 0.0 | 1.0 | 0.00 | 0.44 | 0.44 | 76 | 1012.6 |
| 20260507015857 | 50 | 9 | 1.0 | 1.0 | 0.00 | 0.44 | 0.44 | 75 | 1012.7 |
| 20260507015756 | 50 | 9 | 0.0 | 1.0 | 0.00 | 0.44 | 0.44 | 74 | 1012.6 |
| 20260507015655 | 50 | 9 | 0.0 | 1.0 | 0.00 | 0.44 | 0.44 | 75 | 1012.7 |
| 20260507015556 | 50 | 9 | 0.0 | 1.0 | 0.00 | 0.44 | 0.44 | 75 | 1012.7 |
| 20260507015457 | 50 | 9 | 1.0 | 1.0 | 0.00 | 0.44 | 0.44 | 73 | 1012.6 |
| 20260507015157 | 50 | 9 | 1.0 | 1.0 | 0.00 | 0.44 | 0.44 | 75 | 1012.6 |
| 20260507015056 | 50 | 9 | 0.0 | 1.0 | 0.00 | 0.44 | 0.44 | 75 | 1012.5 |
| 20260507014855 | 50 | 9 | 0.0 | 1.0 | 0.00 | 0.44 | 0.44 | 74 | 1012.5 |
| 20260507014757 | 50 | 9 | 1.0 | 1.0 | 0.00 | 0.44 | 0.44 | 73 | 1012.5 |
| 20260507014657 | 50 | 9 | 0.0 | 1.0 | 0.00 | 0.44 | 0.44 | 73 | 1012.5 |
| 20260507014557 | 50 | 9 | 1.0 | 1.0 | 0.00 | 0.44 | 0.44 | 75 | 1012.5 |
| 20260507014456 | 51 | 9 | 0.0 | 0.0 | 0.00 | 0.44 | 0.44 | 74 | 1012.4 |
| 20260507014356 | 51 | 9 | 0.0 | 1.0 | 0.00 | 0.44 | 0.44 | 74 | 1012.5 |
| 20260507014156 | 51 | 9 | 0.0 | 1.0 | 0.00 | 0.44 | 0.44 | 72 | 1012.3 |
| 20260507014057 | 51 | 9 | 0.0 | 1.0 | 0.00 | 0.44 | 0.44 | 72 | 1012.4 |
| 20260507013956 | 51 | 9 | 0.0 | 1.0 | 0.00 | 0.44 | 0.44 | 69 | 1012.3 |
| 20260507013856 | 51 | 9 | 0.0 | 3.0 | 0.00 | 0.44 | 0.44 | 69 | 1012.4 |
| 20260507013757 | 51 | 9 | 0.0 | 3.0 | 0.00 | 0.44 | 0.44 | 70 | 1012.3 |
| 20260507013556 | 51 | 9 | 0.0 | 3.0 | 0.00 | 0.44 | 0.44 | 68 | 1012.4 |
| 20260507013356 | 51 | 9 | 0.0 | 3.0 | 0.00 | 0.44 | 0.44 | 68 | 1012.3 |
| 20260507013256 | 51 | 9 | 0.0 | 3.0 | 0.00 | 0.44 | 0.44 | 68 | 1012.3 |
| 20260507013157 | 51 | 9 | 0.0 | 3.0 | 0.00 | 0.44 | 0.44 | 67 | 1012.2 |
| 20260507012955 | 51 | 15 | 2.0 | 3.0 | 0.00 | 0.44 | 0.44 | 65 | 1012.2 |
| 20260507012755 | 51 | 10 | 0.0 | 2.0 | 0.00 | 0.44 | 0.44 | 66 | 1012.2 |
| 20260507012656 | 51 | 10 | 0.0 | 2.0 | 0.00 | 0.44 | 0.44 | 65 | 1012.2 |
| 20260507012556 | 51 | 10 | 0.0 | 2.0 | 0.00 | 0.44 | 0.44 | 65 | 1012.2 |
| 20260507012456 | 51 | 10 | 0.0 | 2.0 | 0.00 | 0.44 | 0.44 | 66 | 1012.2 |
| 20260507012356 | 51 | 10 | 0.0 | 2.0 | 0.00 | 0.44 | 0.44 | 67 | 1012.2 |
| 20260507012256 | 51 | 25 | 0.0 | 2.0 | 0.00 | 0.44 | 0.44 | 69 | 1012.2 |
| 20260507012155 | 51 | 25 | 0.0 | 2.0 | 0.00 | 0.44 | 0.44 | 69 | 1012.2 |
| 20260507012055 | 51 | 25 | 1.0 | 2.0 | 0.00 | 0.44 | 0.44 | 68 | 1012.2 |
| 20260507011955 | 51 | 25 | 0.0 | 2.0 | 0.00 | 0.44 | 0.44 | 68 | 1012.2 |
| 20260507011856 | 51 | 25 | 0.0 | 2.0 | 0.00 | 0.44 | 0.44 | 67 | 1012.1 |
| 20260507011756 | 51 | 25 | 0.0 | 2.0 | 0.00 | 0.44 | 0.44 | 67 | 1012.2 |
| 20260507011656 | 52 | 25 | 0.0 | 2.0 | 0.00 | 0.44 | 0.44 | 66 | 1012.3 |
| 20260507011556 | 52 | 25 | 0.0 | 2.0 | 0.00 | 0.44 | 0.44 | 64 | 1012.2 |
| 20260507011456 | 52 | 25 | 1.0 | 2.0 | 0.00 | 0.44 | 0.44 | 64 | 1012.2 |
| 20260507011356 | 52 | 26 | 2.0 | 2.0 | 0.00 | 0.44 | 0.44 | 65 | 1012.2 |
| 20260507011256 | 52 | 39 | 0.0 | 2.0 | 0.00 | 0.44 | 0.44 | 64 | 1012.1 |
| 20260507011156 | 51 | 39 | 0.0 | 2.0 | 0.00 | 0.44 | 0.44 | 64 | 1012.1 |
| 20260507011057 | 51 | 39 | 0.0 | 2.0 | 0.00 | 0.44 | 0.44 | 64 | 1012.1 |
| 20260507010856 | 51 | 23 | 1.0 | 1.0 | 0.00 | 0.44 | 0.44 | 65 | 1012.0 |
| 20260507010757 | 51 | 15 | 0.0 | 1.0 | 0.00 | 0.44 | 0.44 | 67 | 1012.0 |
| 20260507010556 | 52 | 24 | 0.0 | 1.0 | 0.00 | 0.44 | 0.44 | 66 | 1012.1 |
| 20260507010456 | 52 | 24 | 0.0 | 1.0 | 0.00 | 0.44 | 0.44 | 65 | 1012.1 |
| 20260507010255 | 52 | 24 | 0.0 | 2.0 | 0.00 | 0.44 | 0.44 | 63 | 1012.1 |
| 20260507010155 | 52 | 24 | 0.0 | 2.0 | 0.00 | 0.44 | 0.44 | 63 | 1012.1 |
| 20260507010056 | 52 | 24 | 0.0 | 2.0 | 0.00 | 0.44 | 0.44 | 64 | 1012.1 |
| 20260507005956 | 52 | 24 | 0.0 | 2.0 | 0.00 | 0.44 | 0.44 | 63 | 1012.0 |
| 20260507005857 | 52 | 13 | 0.0 | 2.0 | 0.00 | 0.44 | 0.44 | 63 | 1012.2 |
| 20260507005757 | 52 | 13 | 0.0 | 3.0 | 0.00 | 0.44 | 0.44 | 64 | 1012.1 |
| 20260507005657 | 52 | 13 | 0.0 | 3.0 | 0.00 | 0.44 | 0.44 | 64 | 1012.1 |
| 20260507005556 | 52 | 11 | 1.0 | 3.0 | 0.00 | 0.44 | 0.44 | 63 | 1012.2 |
| 20260507005456 | 52 | 11 | 1.0 | 3.0 | 0.00 | 0.44 | 0.44 | 65 | 1012.2 |
| 20260507005257 | 52 | 11 | 1.0 | 3.0 | 0.00 | 0.44 | 0.44 | 63 | 1012.2 |
| 20260507005156 | 52 | 9 | 0.0 | 3.0 | 0.00 | 0.44 | 0.44 | 62 | 1012.3 |
| 20260507005057 | 52 | 11 | 1.0 | 3.0 | 0.00 | 0.44 | 0.44 | 63 | 1012.3 |
| 20260507004957 | 52 | 9 | 2.0 | 3.0 | 0.00 | 0.44 | 0.44 | 62 | 1012.4 |
| 20260507004857 | 52 | 5 | 1.0 | 2.0 | 0.00 | 0.44 | 0.44 | 62 | 1012.3 |
| 20260507004757 | 52 | 5 | 2.0 | 2.0 | 0.00 | 0.44 | 0.44 | 63 | 1012.3 |
| 20260507004656 | 52 | 5 | 0.0 | 3.0 | 0.00 | 0.44 | 0.44 | 64 | 1012.4 |
| 20260507004557 | 52 | 5 | 0.0 | 3.0 | 0.00 | 0.44 | 0.44 | 64 | 1012.3 |
| 20260507004458 | 52 | 360 | 2.0 | 3.0 | 0.00 | 0.44 | 0.44 | 66 | 1012.3 |
| 20260507004356 | 52 | 12 | 0.0 | 3.0 | 0.00 | 0.44 | 0.44 | 62 | 1012.4 |
| 20260507004257 | 52 | 12 | 1.0 | 3.0 | 0.00 | 0.44 | 0.44 | 63 | 1012.4 |
| 20260507004056 | 52 | 12 | 0.0 | 3.0 | 0.00 | 0.44 | 0.44 | 62 | 1012.4 |
| 20260507003957 | 52 | 9 | 1.0 | 3.0 | 0.00 | 0.44 | 0.44 | 62 | 1012.4 |
| 20260507003858 | 52 | 19 | 1.0 | 3.0 | 0.00 | 0.44 | 0.44 | 62 | 1012.5 |
| 20260507003758 | 52 | 22 | 2.0 | 3.0 | 0.00 | 0.44 | 0.44 | 62 | 1012.5 |
| 20260507003657 | 52 | 21 | 0.0 | 2.0 | 0.00 | 0.44 | 0.44 | 63 | 1012.5 |
| 20260507003557 | 52 | 21 | 0.0 | 2.0 | 0.00 | 0.44 | 0.44 | 61 | 1012.5 |
| 20260507003456 | 52 | 21 | 1.0 | 2.0 | 0.00 | 0.44 | 0.44 | 61 | 1012.5 |
| 20260507003357 | 52 | 21 | 1.0 | 2.0 | 0.00 | 0.44 | 0.44 | 62 | 1012.5 |
| 20260507003258 | 52 | 5 | 1.0 | 2.0 | 0.00 | 0.44 | 0.44 | 61 | 1012.5 |
| 20260507003157 | 52 | 5 | 0.0 | 2.0 | 0.00 | 0.44 | 0.44 | 64 | 1012.5 |
| 20260507003056 | 52 | 360 | 0.0 | 2.0 | 0.00 | 0.44 | 0.44 | 63 | 1012.5 |
| 20260507002956 | 52 | 360 | 0.0 | 2.0 | 0.00 | 0.44 | 0.44 | 61 | 1012.5 |
| 20260507002857 | 52 | 360 | 1.0 | 2.0 | 0.00 | 0.44 | 0.44 | 60 | 1012.5 |
| 20260507002657 | 53 | 360 | 1.0 | 4.0 | 0.00 | 0.44 | 0.44 | 63 | 1012.5 |
| 20260507002557 | 53 | 360 | 0.0 | 4.0 | 0.00 | 0.44 | 0.44 | 62 | 1012.5 |
| 20260507002456 | 53 | 360 | 1.0 | 4.0 | 0.00 | 0.44 | 0.44 | 62 | 1012.4 |
| 20260507002357 | 53 | 355 | 0.0 | 4.0 | 0.00 | 0.44 | 0.44 | 61 | 1012.4 |